| time (UTC) | temp C | wind direction | speed KPH | gust KPH | rain 1hr cm | rain 24hr cm | rain mn cm | humidity % | barometer mb |
| 20260503215628 | 17 | 178 | 3.2 | 9.7 | 0.00 | 0.00 | 0.00 | 37 | 1015.5 |
| 20260503215528 | 17 | 175 | 3.2 | 9.7 | 0.00 | 0.00 | 0.00 | 37 | 1015.5 |
| 20260503215428 | 17 | 175 | 3.2 | 9.7 | 0.00 | 0.00 | 0.00 | 36 | 1015.5 |
| 20260503215328 | 17 | 163 | 3.2 | 8.0 | 0.00 | 0.00 | 0.00 | 37 | 1015.5 |
| 20260503215228 | 17 | 163 | 3.2 | 8.0 | 0.00 | 0.00 | 0.00 | 37 | 1015.5 |
| 20260503215127 | 17 | 119 | 3.2 | 8.0 | 0.00 | 0.00 | 0.00 | 37 | 1015.6 |
| 20260503215027 | 17 | 121 | 3.2 | 8.0 | 0.00 | 0.00 | 0.00 | 37 | 1015.6 |
| 20260503214924 | 17 | 198 | 3.2 | 8.0 | 0.00 | 0.00 | 0.00 | 37 | 1015.6 |
| 20260503214824 | 17 | 272 | 3.2 | 11.3 | 0.00 | 0.00 | 0.00 | 37 | 1015.6 |
| 20260503214723 | 17 | 272 | 3.2 | 11.3 | 0.00 | 0.00 | 0.00 | 35 | 1015.6 |
| 20260503214615 | 17 | 329 | 3.2 | 11.3 | 0.00 | 0.00 | 0.00 | 35 | 1015.7 |
| 20260503214516 | 17 | 219 | 3.2 | 11.3 | 0.00 | 0.00 | 0.00 | 35 | 1015.7 |
| 20260503214414 | 17 | 126 | 3.2 | 11.3 | 0.00 | 0.00 | 0.00 | 38 | 1015.7 |
| 20260503214313 | 17 | 131 | 3.2 | 11.3 | 0.00 | 0.00 | 0.00 | 36 | 1015.7 |
| 20260503214212 | 17 | 131 | 3.2 | 11.3 | 0.00 | 0.00 | 0.00 | 36 | 1015.7 |
| 20260503214106 | 17 | 131 | 3.2 | 11.3 | 0.00 | 0.00 | 0.00 | 36 | 1015.7 |
| 20260503214005 | 17 | 131 | 1.6 | 11.3 | 0.00 | 0.00 | 0.00 | 36 | 1015.7 |
| 20260503213906 | 17 | 129 | 1.6 | 11.3 | 0.00 | 0.00 | 0.00 | 36 | 1015.7 |
| 20260503213806 | 17 | 168 | 1.6 | 9.7 | 0.00 | 0.00 | 0.00 | 37 | 1015.7 |
| 20260503213706 | 17 | 131 | 0.0 | 9.7 | 0.00 | 0.00 | 0.00 | 36 | 1015.7 |
| 20260503213601 | 17 | 156 | 0.0 | 9.7 | 0.00 | 0.00 | 0.00 | 35 | 1015.7 |
| 20260503213500 | 18 | 163 | 0.0 | 0.0 | 0.00 | 0.00 | 0.00 | 34 | 1015.7 |
| 20260503213401 | 18 | 134 | 0.0 | 0.0 | 0.00 | 0.00 | 0.00 | 36 | 1015.7 |
| 20260503213302 | 18 | 188 | 0.0 | 4.8 | 0.00 | 0.00 | 0.00 | 35 | 1015.8 |
| 20260503213201 | 18 | 191 | 1.6 | 4.8 | 0.00 | 0.00 | 0.00 | 36 | 1015.8 |
| 20260503213050 | 18 | 157 | 1.6 | 4.8 | 0.00 | 0.00 | 0.00 | 34 | 1015.9 |
| 20260503212949 | 18 | 160 | 1.6 | 4.8 | 0.00 | 0.00 | 0.00 | 33 | 1015.8 |
| 20260503212850 | 18 | 217 | 1.6 | 4.8 | 0.00 | 0.00 | 0.00 | 33 | 1015.8 |
| 20260503212749 | 18 | 217 | 1.6 | 4.8 | 0.00 | 0.00 | 0.00 | 34 | 1015.9 |
| 20260503212651 | 18 | 188 | 1.6 | 8.0 | 0.00 | 0.00 | 0.00 | 36 | 1015.8 |
| 20260503212543 | 18 | 185 | 1.6 | 8.0 | 0.00 | 0.00 | 0.00 | 38 | 1015.9 |
| 20260503212444 | 18 | 115 | 1.6 | 8.0 | 0.00 | 0.00 | 0.00 | 35 | 1015.8 |
| 20260503212344 | 18 | 115 | 1.6 | 8.0 | 0.00 | 0.00 | 0.00 | 37 | 1015.9 |
| 20260503212244 | 18 | 103 | 1.6 | 8.0 | 0.00 | 0.00 | 0.00 | 37 | 1015.9 |
| 20260503212145 | 18 | 250 | 1.6 | 8.0 | 0.00 | 0.00 | 0.00 | 37 | 1015.8 |
| 20260503212042 | 18 | 234 | 1.6 | 8.0 | 0.00 | 0.00 | 0.00 | 38 | 1015.9 |
| 20260503211941 | 18 | 188 | 1.6 | 8.0 | 0.00 | 0.00 | 0.00 | 37 | 1015.9 |
| 20260503211842 | 18 | 190 | 0.0 | 8.0 | 0.00 | 0.00 | 0.00 | 36 | 1015.9 |
| 20260503211741 | 18 | 231 | 0.0 | 8.0 | 0.00 | 0.00 | 0.00 | 35 | 1015.8 |
| 20260503211641 | 18 | 355 | 0.0 | 4.8 | 0.00 | 0.00 | 0.00 | 35 | 1015.9 |
| 20260503211533 | 18 | 11 | 0.0 | 0.0 | 0.00 | 0.00 | 0.00 | 36 | 1016.0 |
| 20260503211432 | 18 | 11 | 0.0 | 0.0 | 0.00 | 0.00 | 0.00 | 36 | 1016.0 |
| 20260503211333 | 18 | 9 | 0.0 | 0.0 | 0.00 | 0.00 | 0.00 | 36 | 1016.1 |
| 20260503211231 | 17 | 153 | 0.0 | 0.0 | 0.00 | 0.00 | 0.00 | 37 | 1016.1 |
| 20260503211128 | 17 | 161 | 0.0 | 0.0 | 0.00 | 0.00 | 0.00 | 36 | 1016.1 |
| 20260503211027 | 17 | 281 | 0.0 | 0.0 | 0.00 | 0.00 | 0.00 | 36 | 1016.1 |
| 20260503210926 | 17 | 28 | 0.0 | 0.0 | 0.00 | 0.00 | 0.00 | 36 | 1016.0 |
| 20260503210825 | 17 | 261 | 0.0 | 0.0 | 0.00 | 0.00 | 0.00 | 35 | 1016.0 |
| 20260503210725 | 17 | 342 | 0.0 | 0.0 | 0.00 | 0.00 | 0.00 | 35 | 1016.1 |
| 20260503210623 | 17 | 237 | 0.0 | 0.0 | 0.00 | 0.00 | 0.00 | 35 | 1016.1 |
| 20260503210524 | 17 | 146 | 0.0 | 0.0 | 0.00 | 0.00 | 0.00 | 35 | 1016.0 |
| 20260503210419 | 17 | 212 | 0.0 | 0.0 | 0.00 | 0.00 | 0.00 | 34 | 1016.0 |
| 20260503210320 | 17 | 167 | 0.0 | 0.0 | 0.00 | 0.00 | 0.00 | 33 | 1016.1 |
| 20260503210219 | 17 | 173 | 0.0 | 0.0 | 0.00 | 0.00 | 0.00 | 33 | 1016.0 |
| 20260503210116 | 17 | 173 | 0.0 | 0.0 | 0.00 | 0.00 | 0.00 | 35 | 1016.0 |
| 20260503210007 | 17 | 172 | 0.0 | 0.0 | 0.00 | 0.00 | 0.00 | 36 | 1016.1 |
| 20260503205906 | 17 | 167 | 0.0 | 0.0 | 0.00 | 0.00 | 0.00 | 37 | 1016.1 |
| 20260503205807 | 17 | 173 | 0.0 | 0.0 | 0.00 | 0.00 | 0.00 | 35 | 1016.1 |
| 20260503205707 | 17 | 162 | 0.0 | 0.0 | 0.00 | 0.00 | 0.00 | 35 | 1016.1 |
| 20260503205607 | 17 | 151 | 0.0 | 0.0 | 0.00 | 0.00 | 0.00 | 36 | 1016.0 |
| 20260503205500 | 17 | 198 | 0.0 | 0.0 | 0.00 | 0.00 | 0.00 | 34 | 1016.0 |
| 20260503205400 | 17 | 182 | 0.0 | 0.0 | 0.00 | 0.00 | 0.00 | 35 | 1016.1 |
| 20260503205303 | 17 | 182 | 0.0 | 0.0 | 0.00 | 0.00 | 0.00 | 35 | 1016.1 |
| 20260503205200 | 17 | 198 | 0.0 | 0.0 | 0.00 | 0.00 | 0.00 | 36 | 1016.1 |
| 20260503205101 | 17 | 163 | 0.0 | 0.0 | 0.00 | 0.00 | 0.00 | 37 | 1016.1 |
| 20260503204957 | 18 | 140 | 0.0 | 0.0 | 0.00 | 0.00 | 0.00 | 35 | 1016.1 |
| 20260503204857 | 18 | 145 | 0.0 | 0.0 | 0.00 | 0.00 | 0.00 | 35 | 1016.0 |
| 20260503204756 | 18 | 163 | 0.0 | 0.0 | 0.00 | 0.00 | 0.00 | 34 | 1016.1 |
| 20260503204657 | 18 | 139 | 0.0 | 0.0 | 0.00 | 0.00 | 0.00 | 35 | 1016.1 |
| 20260503204555 | 18 | 196 | 0.0 | 0.0 | 0.00 | 0.00 | 0.00 | 35 | 1016.1 |
| 20260503204446 | 18 | 145 | 0.0 | 0.0 | 0.00 | 0.00 | 0.00 | 37 | 1016.1 |
| 20260503204346 | 18 | 119 | 0.0 | 0.0 | 0.00 | 0.00 | 0.00 | 35 | 1016.1 |
| 20260503204246 | 18 | 202 | 0.0 | 0.0 | 0.00 | 0.00 | 0.00 | 36 | 1016.1 |
| 20260503204147 | 18 | 150 | 0.0 | 0.0 | 0.00 | 0.00 | 0.00 | 34 | 1016.1 |
| 20260503204044 | 18 | 161 | 0.0 | 0.0 | 0.00 | 0.00 | 0.00 | 35 | 1016.1 |
| 20260503203940 | 18 | 146 | 0.0 | 0.0 | 0.00 | 0.00 | 0.00 | 35 | 1016.2 |
| 20260503203839 | 18 | 200 | 0.0 | 0.0 | 0.00 | 0.00 | 0.00 | 36 | 1016.1 |
| 20260503203738 | 18 | 107 | 0.0 | 0.0 | 0.00 | 0.00 | 0.00 | 35 | 1016.1 |
| 20260503203640 | 18 | 64 | 0.0 | 0.0 | 0.00 | 0.00 | 0.00 | 35 | 1016.2 |
| 20260503203538 | 18 | 148 | 0.0 | 0.0 | 0.00 | 0.00 | 0.00 | 33 | 1016.2 |
| 20260503203433 | 18 | 171 | 0.0 | 0.0 | 0.00 | 0.00 | 0.00 | 33 | 1016.2 |
| 20260503203331 | 18 | 98 | 0.0 | 0.0 | 0.00 | 0.00 | 0.00 | 32 | 1016.2 |
| 20260503203234 | 18 | 96 | 0.0 | 0.0 | 0.00 | 0.00 | 0.00 | 31 | 1016.2 |
| 20260503203132 | 18 | 340 | 0.0 | 0.0 | 0.00 | 0.00 | 0.00 | 31 | 1016.2 |
| 20260503203033 | 18 | 279 | 0.0 | 0.0 | 0.00 | 0.00 | 0.00 | 33 | 1016.2 |
| 20260503202922 | 17 | 93 | 0.0 | 9.7 | 0.00 | 0.00 | 0.00 | 31 | 1016.2 |
| 20260503202822 | 18 | 147 | 0.0 | 9.7 | 0.00 | 0.00 | 0.00 | 32 | 1016.3 |
| 20260503202723 | 18 | 119 | 0.0 | 9.7 | 0.00 | 0.00 | 0.00 | 32 | 1016.3 |
| 20260503202623 | 18 | 132 | 0.0 | 9.7 | 0.00 | 0.00 | 0.00 | 31 | 1016.2 |
| 20260503202523 | 18 | 144 | 0.0 | 9.7 | 0.00 | 0.00 | 0.00 | 32 | 1016.2 |
| 20260503202420 | 18 | 144 | 0.0 | 9.7 | 0.00 | 0.00 | 0.00 | 30 | 1016.2 |
| 20260503202320 | 17 | 147 | 0.0 | 9.7 | 0.00 | 0.00 | 0.00 | 31 | 1016.2 |
| 20260503202221 | 18 | 144 | 0.0 | 9.7 | 0.00 | 0.00 | 0.00 | 30 | 1016.3 |
| 20260503202118 | 18 | 66 | 1.6 | 9.7 | 0.00 | 0.00 | 0.00 | 31 | 1016.2 |
| 20260503202016 | 17 | 155 | 1.6 | 9.7 | 0.00 | 0.00 | 0.00 | 29 | 1016.3 |
| 20260503201917 | 17 | 155 | 3.2 | 14.5 | 0.00 | 0.00 | 0.00 | 30 | 1016.3 |
| 20260503201815 | 18 | 103 | 3.2 | 14.5 | 0.00 | 0.00 | 0.00 | 31 | 1016.3 |
| 20260503201713 | 18 | 306 | 3.2 | 14.5 | 0.00 | 0.00 | 0.00 | 29 | 1016.3 |
| 20260503201613 | 17 | 306 | 3.2 | 14.5 | 0.00 | 0.00 | 0.00 | 30 | 1016.4 |
| 20260503201511 | 17 | 150 | 4.8 | 14.5 | 0.00 | 0.00 | 0.00 | 30 | 1016.3 |
| 20260503201359 | 17 | 150 | 4.8 | 14.5 | 0.00 | 0.00 | 0.00 | 30 | 1016.3 |
| 20260503201300 | 17 | 142 | 4.8 | 14.5 | 0.00 | 0.00 | 0.00 | 32 | 1016.3 |
| 20260503201200 | 17 | 151 | 4.8 | 14.5 | 0.00 | 0.00 | 0.00 | 30 | 1016.4 |
| 20260503201100 | 17 | 198 | 4.8 | 14.5 | 0.00 | 0.00 | 0.00 | 29 | 1016.4 |
| 20260503201001 | 17 | 175 | 3.2 | 14.5 | 0.00 | 0.00 | 0.00 | 32 | 1016.4 |
| 20260503200854 | 17 | 248 | 3.2 | 11.3 | 0.00 | 0.00 | 0.00 | 31 | 1016.4 |
| 20260503200755 | 17 | 201 | 3.2 | 11.3 | 0.00 | 0.00 | 0.00 | 33 | 1016.5 |
| 20260503200655 | 17 | 201 | 1.6 | 11.3 | 0.00 | 0.00 | 0.00 | 30 | 1016.5 |
| 20260503200555 | 17 | 204 | 1.6 | 11.3 | 0.00 | 0.00 | 0.00 | 29 | 1016.4 |
| 20260503200454 | 17 | 196 | 1.6 | 11.3 | 0.00 | 0.00 | 0.00 | 30 | 1016.5 |
| 20260503200349 | 17 | 267 | 0.0 | 9.7 | 0.00 | 0.00 | 0.00 | 30 | 1016.5 |
| 20260503200249 | 17 | 110 | 0.0 | 4.8 | 0.00 | 0.00 | 0.00 | 30 | 1016.5 |
| 20260503200149 | 17 | 142 | 0.0 | 4.8 | 0.00 | 0.00 | 0.00 | 29 | 1016.6 |
| 20260503200049 | 17 | 141 | 0.0 | 4.8 | 0.00 | 0.00 | 0.00 | 30 | 1016.6 |
| 20260503195948 | 17 | 104 | 0.0 | 0.0 | 0.00 | 0.00 | 0.00 | 32 | 1016.6 |
| 20260503195841 | 17 | 90 | 0.0 | 0.0 | 0.00 | 0.00 | 0.00 | 30 | 1016.6 |
| 20260503195738 | 17 | 307 | 0.0 | 0.0 | 0.00 | 0.00 | 0.00 | 28 | 1016.6 |
| 20260503195638 | 17 | 306 | 0.0 | 0.0 | 0.00 | 0.00 | 0.00 | 28 | 1016.6 |
| 20260503195537 | 17 | 287 | 0.0 | 0.0 | 0.00 | 0.00 | 0.00 | 28 | 1016.7 |
| 20260503195438 | 17 | 304 | 0.0 | 0.0 | 0.00 | 0.00 | 0.00 | 28 | 1016.9 |
| 20260503195332 | 17 | 265 | 0.0 | 0.0 | 0.00 | 0.00 | 0.00 | 29 | 1016.7 |
| 20260503195232 | 17 | 300 | 0.0 | 0.0 | 0.00 | 0.00 | 0.00 | 29 | 1016.7 |
| 20260503195133 | 17 | 286 | 0.0 | 9.7 | 0.00 | 0.00 | 0.00 | 28 | 1016.7 |
| 20260503195032 | 17 | 283 | 0.0 | 9.7 | 0.00 | 0.00 | 0.00 | 31 | 1016.7 |
| 20260503194933 | 17 | 330 | 0.0 | 9.7 | 0.00 | 0.00 | 0.00 | 30 | 1016.7 |
| 20260503194829 | 17 | 293 | 1.6 | 9.7 | 0.00 | 0.00 | 0.00 | 31 | 1016.7 |
| 20260503194726 | 17 | 254 | 1.6 | 9.7 | 0.00 | 0.00 | 0.00 | 31 | 1016.6 |
| 20260503194626 | 17 | 241 | 1.6 | 9.7 | 0.00 | 0.00 | 0.00 | 31 | 1016.6 |
| 20260503194527 | 17 | 116 | 1.6 | 9.7 | 0.00 | 0.00 | 0.00 | 31 | 1016.6 |
| 20260503194428 | 17 | 170 | 3.2 | 9.7 | 0.00 | 0.00 | 0.00 | 30 | 1016.7 |
| 20260503194320 | 17 | 170 | 3.2 | 9.7 | 0.00 | 0.00 | 0.00 | 28 | 1016.7 |
| 20260503194220 | 17 | 170 | 3.2 | 9.7 | 0.00 | 0.00 | 0.00 | 30 | 1016.7 |
| 20260503194120 | 17 | 112 | 3.2 | 11.3 | 0.00 | 0.00 | 0.00 | 31 | 1016.7 |
| 20260503194018 | 16 | 110 | 3.2 | 11.3 | 0.00 | 0.00 | 0.00 | 30 | 1016.7 |
| 20260503193917 | 16 | 110 | 3.2 | 11.3 | 0.00 | 0.00 | 0.00 | 29 | 1016.7 |
| 20260503193815 | 16 | 110 | 3.2 | 11.3 | 0.00 | 0.00 | 0.00 | 28 | 1016.7 |
| 20260503193714 | 17 | 111 | 3.2 | 11.3 | 0.00 | 0.00 | 0.00 | 30 | 1016.7 |
| 20260503193611 | 17 | 119 | 3.2 | 11.3 | 0.00 | 0.00 | 0.00 | 27 | 1016.9 |
| 20260503193512 | 17 | 120 | 3.2 | 16.1 | 0.00 | 0.00 | 0.00 | 27 | 1016.9 |
| 20260503193411 | 17 | 128 | 3.2 | 16.1 | 0.00 | 0.00 | 0.00 | 28 | 1016.9 |
| 20260503193305 | 17 | 243 | 3.2 | 16.1 | 0.00 | 0.00 | 0.00 | 29 | 1016.9 |
| 20260503193204 | 17 | 287 | 3.2 | 16.1 | 0.00 | 0.00 | 0.00 | 32 | 1016.9 |
| 20260503193105 | 17 | 287 | 3.2 | 16.1 | 0.00 | 0.00 | 0.00 | 31 | 1016.9 |
| 20260503193005 | 17 | 310 | 4.8 | 16.1 | 0.00 | 0.00 | 0.00 | 31 | 1017.0 |
| 20260503192904 | 17 | 355 | 4.8 | 16.1 | 0.00 | 0.00 | 0.00 | 29 | 1017.0 |
| 20260503192758 | 16 | 342 | 4.8 | 16.1 | 0.00 | 0.00 | 0.00 | 30 | 1017.0 |
| 20260503192658 | 16 | 342 | 4.8 | 16.1 | 0.00 | 0.00 | 0.00 | 28 | 1016.9 |
| 20260503192556 | 16 | 342 | 4.8 | 16.1 | 0.00 | 0.00 | 0.00 | 29 | 1017.0 |
| 20260503192457 | 16 | 348 | 6.4 | 16.1 | 0.00 | 0.00 | 0.00 | 31 | 1016.9 |
| 20260503192354 | 16 | 298 | 6.4 | 19.3 | 0.00 | 0.00 | 0.00 | 30 | 1017.0 |
| 20260503192250 | 16 | 298 | 6.4 | 19.3 | 0.00 | 0.00 | 0.00 | 31 | 1016.9 |
| 20260503192147 | 16 | 348 | 6.4 | 19.3 | 0.00 | 0.00 | 0.00 | 32 | 1016.9 |
| 20260503192049 | 16 | 321 | 6.4 | 19.3 | 0.00 | 0.00 | 0.00 | 31 | 1017.0 |
| 20260503191948 | 16 | 313 | 4.8 | 19.3 | 0.00 | 0.00 | 0.00 | 30 | 1016.9 |
| 20260503191848 | 16 | 280 | 6.4 | 19.3 | 0.00 | 0.00 | 0.00 | 28 | 1017.0 |
| 20260503191742 | 16 | 200 | 6.4 | 19.3 | 0.00 | 0.00 | 0.00 | 30 | 1016.9 |
| 20260503191642 | 16 | 197 | 6.4 | 19.3 | 0.00 | 0.00 | 0.00 | 29 | 1017.0 |
| 20260503191542 | 16 | 303 | 6.4 | 19.3 | 0.00 | 0.00 | 0.00 | 29 | 1017.0 |
| 20260503191442 | 16 | 291 | 6.4 | 19.3 | 0.00 | 0.00 | 0.00 | 30 | 1017.1 |
| 20260503191342 | 16 | 332 | 4.8 | 14.5 | 0.00 | 0.00 | 0.00 | 29 | 1017.0 |
| 20260503191232 | 16 | 304 | 4.8 | 14.5 | 0.00 | 0.00 | 0.00 | 29 | 1017.1 |
| 20260503191132 | 16 | 314 | 4.8 | 14.5 | 0.00 | 0.00 | 0.00 | 29 | 1017.0 |
| 20260503191033 | 16 | 201 | 4.8 | 14.5 | 0.00 | 0.00 | 0.00 | 30 | 1017.1 |
| 20260503190933 | 16 | 314 | 4.8 | 14.5 | 0.00 | 0.00 | 0.00 | 31 | 1017.1 |
| 20260503190832 | 16 | 336 | 4.8 | 14.5 | 0.00 | 0.00 | 0.00 | 32 | 1017.1 |
| 20260503190727 | 16 | 333 | 4.8 | 14.5 | 0.00 | 0.00 | 0.00 | 31 | 1017.1 |
| 20260503190626 | 16 | 146 | 4.8 | 14.5 | 0.00 | 0.00 | 0.00 | 31 | 1017.1 |
| 20260503190527 | 16 | 49 | 4.8 | 14.5 | 0.00 | 0.00 | 0.00 | 31 | 1017.1 |
| 20260503190425 | 16 | 38 | 4.8 | 19.3 | 0.00 | 0.00 | 0.00 | 30 | 1017.1 |
| 20260503190327 | 16 | 319 | 4.8 | 19.3 | 0.00 | 0.00 | 0.00 | 31 | 1017.1 |
| 20260503190221 | 16 | 315 | 4.8 | 19.3 | 0.00 | 0.00 | 0.00 | 31 | 1017.2 |
| 20260503190120 | 16 | 347 | 4.8 | 19.3 | 0.00 | 0.00 | 0.00 | 34 | 1017.1 |
| 20260503190021 | 16 | 5 | 4.8 | 19.3 | 0.00 | 0.00 | 0.00 | 31 | 1017.3 |
| 20260503185921 | 16 | 349 | 4.8 | 19.3 | 0.00 | 0.00 | 0.00 | 32 | 1017.2 |
| 20260503185821 | 16 | 196 | 4.8 | 19.3 | 0.00 | 0.00 | 0.00 | 31 | 1017.2 |
| 20260503185713 | 16 | 319 | 4.8 | 19.3 | 0.00 | 0.00 | 0.00 | 30 | 1017.2 |
| 20260503185611 | 16 | 251 | 4.8 | 19.3 | 0.00 | 0.00 | 0.00 | 31 | 1017.3 |
| 20260503185510 | 16 | 234 | 4.8 | 19.3 | 0.00 | 0.00 | 0.00 | 30 | 1017.3 |
| 20260503185410 | 16 | 318 | 4.8 | 14.5 | 0.00 | 0.00 | 0.00 | 33 | 1017.3 |
| 20260503185310 | 16 | 253 | 4.8 | 14.5 | 0.00 | 0.00 | 0.00 | 31 | 1017.3 |
| 20260503185203 | 16 | 42 | 4.8 | 14.5 | 0.00 | 0.00 | 0.00 | 34 | 1017.3 |
| 20260503185103 | 16 | 355 | 4.8 | 14.5 | 0.00 | 0.00 | 0.00 | 34 | 1017.3 |
| 20260503185005 | 16 | 193 | 4.8 | 14.5 | 0.00 | 0.00 | 0.00 | 34 | 1017.4 |
| 20260503184904 | 16 | 263 | 4.8 | 14.5 | 0.00 | 0.00 | 0.00 | 32 | 1017.3 |
| 20260503184804 | 16 | 191 | 4.8 | 14.5 | 0.00 | 0.00 | 0.00 | 33 | 1017.4 |
| 20260503184657 | 16 | 169 | 4.8 | 14.5 | 0.00 | 0.00 | 0.00 | 33 | 1017.4 |
| 20260503184558 | 16 | 227 | 4.8 | 14.5 | 0.00 | 0.00 | 0.00 | 36 | 1017.4 |
| 20260503184459 | 16 | 146 | 6.4 | 14.5 | 0.00 | 0.00 | 0.00 | 37 | 1017.5 |
| 20260503184358 | 16 | 152 | 6.4 | 14.5 | 0.00 | 0.00 | 0.00 | 34 | 1017.4 |
| 20260503184258 | 16 | 281 | 6.4 | 14.5 | 0.00 | 0.00 | 0.00 | 33 | 1017.5 |
| 20260503184149 | 16 | 136 | 6.4 | 14.5 | 0.00 | 0.00 | 0.00 | 33 | 1017.5 |
| 20260503184048 | 16 | 345 | 8.0 | 16.1 | 0.00 | 0.00 | 0.00 | 34 | 1017.5 |
| 20260503183949 | 16 | 186 | 6.4 | 16.1 | 0.00 | 0.00 | 0.00 | 33 | 1017.4 |
| 20260503183848 | 15 | 245 | 6.4 | 16.1 | 0.00 | 0.00 | 0.00 | 32 | 1017.5 |
| 20260503183749 | 15 | 355 | 6.4 | 16.1 | 0.00 | 0.00 | 0.00 | 35 | 1017.5 |
| 20260503183642 | 16 | 273 | 6.4 | 16.1 | 0.00 | 0.00 | 0.00 | 34 | 1017.6 |
| 20260503183542 | 16 | 344 | 6.4 | 16.1 | 0.00 | 0.00 | 0.00 | 33 | 1017.5 |
| 20260503183443 | 16 | 329 | 6.4 | 16.1 | 0.00 | 0.00 | 0.00 | 33 | 1017.6 |
| 20260503183342 | 16 | 338 | 6.4 | 16.1 | 0.00 | 0.00 | 0.00 | 33 | 1017.5 |
| 20260503183243 | 16 | 5 | 6.4 | 16.1 | 0.00 | 0.00 | 0.00 | 33 | 1017.5 |
| 20260503183137 | 16 | 326 | 6.4 | 16.1 | 0.00 | 0.00 | 0.00 | 33 | 1017.6 |
| 20260503183035 | 16 | 329 | 6.4 | 12.9 | 0.00 | 0.00 | 0.00 | 32 | 1017.7 |
| 20260503182937 | 16 | 279 | 4.8 | 12.9 | 0.00 | 0.00 | 0.00 | 33 | 1017.7 |
| 20260503182835 | 16 | 301 | 6.4 | 14.5 | 0.00 | 0.00 | 0.00 | 37 | 1017.7 |
| 20260503182736 | 16 | 355 | 6.4 | 16.1 | 0.00 | 0.00 | 0.00 | 34 | 1017.7 |
| 20260503182629 | 16 | 121 | 6.4 | 16.1 | 0.00 | 0.00 | 0.00 | 34 | 1017.6 |
| 20260503182526 | 15 | 320 | 6.4 | 16.1 | 0.00 | 0.00 | 0.00 | 34 | 1017.7 |
| 20260503182427 | 15 | 311 | 6.4 | 16.1 | 0.00 | 0.00 | 0.00 | 33 | 1017.7 |
| 20260503182325 | 15 | 306 | 6.4 | 16.1 | 0.00 | 0.00 | 0.00 | 33 | 1017.7 |
| 20260503182227 | 15 | 306 | 6.4 | 16.1 | 0.00 | 0.00 | 0.00 | 35 | 1017.8 |
| 20260503182120 | 15 | 332 | 6.4 | 16.1 | 0.00 | 0.00 | 0.00 | 34 | 1017.8 |
| 20260503182020 | 15 | 269 | 6.4 | 16.1 | 0.00 | 0.00 | 0.00 | 33 | 1017.8 |
| 20260503181921 | 15 | 315 | 6.4 | 16.1 | 0.00 | 0.00 | 0.00 | 33 | 1017.8 |
| 20260503181820 | 15 | 321 | 6.4 | 16.1 | 0.00 | 0.00 | 0.00 | 37 | 1017.8 |
| 20260503181721 | 15 | 338 | 6.4 | 16.1 | 0.00 | 0.00 | 0.00 | 35 | 1017.9 |
| 20260503181620 | 15 | 321 | 6.4 | 16.1 | 0.00 | 0.00 | 0.00 | 34 | 1017.8 |
| 20260503181518 | 15 | 312 | 6.4 | 16.1 | 0.00 | 0.00 | 0.00 | 34 | 1017.9 |
| 20260503181418 | 15 | 279 | 4.8 | 16.1 | 0.00 | 0.00 | 0.00 | 35 | 1017.9 |
| 20260503181317 | 15 | 310 | 6.4 | 16.1 | 0.00 | 0.00 | 0.00 | 33 | 1017.9 |
| 20260503181215 | 15 | 80 | 6.4 | 16.1 | 0.00 | 0.00 | 0.00 | 35 | 1017.9 |
| 20260503181103 | 15 | 298 | 6.4 | 16.1 | 0.00 | 0.00 | 0.00 | 35 | 1017.9 |
| 20260503181004 | 15 | 305 | 6.4 | 16.1 | 0.00 | 0.00 | 0.00 | 34 | 1017.9 |
| 20260503180905 | 15 | 299 | 6.4 | 16.1 | 0.00 | 0.00 | 0.00 | 34 | 1017.9 |
| 20260503180805 | 15 | 298 | 8.0 | 19.3 | 0.00 | 0.00 | 0.00 | 36 | 1017.9 |
| 20260503180704 | 15 | 355 | 8.0 | 19.3 | 0.00 | 0.00 | 0.00 | 36 | 1018.0 |
| 20260503180558 | 15 | 11 | 8.0 | 19.3 | 0.00 | 0.00 | 0.00 | 35 | 1017.9 |
| 20260503180458 | 15 | 11 | 9.7 | 19.3 | 0.00 | 0.00 | 0.00 | 36 | 1017.9 |
| 20260503180358 | 15 | 19 | 9.7 | 19.3 | 0.00 | 0.00 | 0.00 | 34 | 1017.9 |
| 20260503180258 | 15 | 345 | 11.3 | 19.3 | 0.00 | 0.00 | 0.00 | 33 | 1017.9 |
| 20260503180159 | 15 | 302 | 11.3 | 19.3 | 0.00 | 0.00 | 0.00 | 33 | 1018.0 |
| 20260503180053 | 15 | 297 | 9.7 | 19.3 | 0.00 | 0.00 | 0.00 | 32 | 1017.9 |
| 20260503175951 | 15 | 270 | 9.7 | 19.3 | 0.00 | 0.00 | 0.00 | 33 | 1018.0 |
| 20260503175853 | 15 | 271 | 8.0 | 19.3 | 0.00 | 0.00 | 0.00 | 32 | 1017.9 |
| 20260503175751 | 15 | 0 | 6.4 | 17.7 | 0.00 | 0.00 | 0.00 | 33 | 1018.0 |
| 20260503175652 | 15 | 319 | 6.4 | 17.7 | 0.00 | 0.00 | 0.00 | 33 | 1018.1 |
| 20260503175548 | 15 | 302 | 6.4 | 17.7 | 0.00 | 0.00 | 0.00 | 34 | 1018.1 |
| 20260503175448 | 15 | 317 | 4.8 | 17.7 | 0.00 | 0.00 | 0.00 | 34 | 1018.0 |
| 20260503175349 | 15 | 5 | 4.8 | 14.5 | 0.00 | 0.00 | 0.00 | 36 | 1018.0 |
| 20260503175247 | 15 | 0 | 4.8 | 14.5 | 0.00 | 0.00 | 0.00 | 35 | 1018.1 |
| 20260503175149 | 15 | 355 | 4.8 | 14.5 | 0.00 | 0.00 | 0.00 | 39 | 1018.0 |
| 20260503175047 | 15 | 22 | 3.2 | 14.5 | 0.00 | 0.00 | 0.00 | 35 | 1018.0 |
| 20260503174948 | 15 | 338 | 3.2 | 14.5 | 0.00 | 0.00 | 0.00 | 35 | 1018.1 |
| 20260503174849 | 15 | 281 | 3.2 | 14.5 | 0.00 | 0.00 | 0.00 | 35 | 1018.1 |
| 20260503174747 | 15 | 281 | 4.8 | 14.5 | 0.00 | 0.00 | 0.00 | 34 | 1018.1 |
| 20260503174649 | 15 | 334 | 4.8 | 14.5 | 0.00 | 0.00 | 0.00 | 34 | 1018.0 |
| 20260503174549 | 15 | 284 | 4.8 | 14.5 | 0.00 | 0.00 | 0.00 | 33 | 1018.1 |
| 20260503174447 | 15 | 285 | 4.8 | 14.5 | 0.00 | 0.00 | 0.00 | 32 | 1018.2 |
| 20260503174346 | 15 | 287 | 4.8 | 14.5 | 0.00 | 0.00 | 0.00 | 33 | 1018.2 |
| 20260503174245 | 15 | 288 | 4.8 | 14.5 | 0.00 | 0.00 | 0.00 | 32 | 1018.2 |
| 20260503174145 | 15 | 287 | 3.2 | 14.5 | 0.00 | 0.00 | 0.00 | 34 | 1018.1 |
| 20260503174045 | 15 | 302 | 3.2 | 12.9 | 0.00 | 0.00 | 0.00 | 33 | 1018.1 |
| 20260503173945 | 15 | 355 | 3.2 | 12.9 | 0.00 | 0.00 | 0.00 | 33 | 1018.2 |
| 20260503173840 | 15 | 254 | 3.2 | 12.9 | 0.00 | 0.00 | 0.00 | 35 | 1018.2 |
| 20260503173739 | 15 | 254 | 3.2 | 12.9 | 0.00 | 0.00 | 0.00 | 34 | 1018.2 |
| 20260503173640 | 15 | 225 | 4.8 | 12.9 | 0.00 | 0.00 | 0.00 | 35 | 1018.2 |
| 20260503173538 | 15 | 236 | 4.8 | 12.9 | 0.00 | 0.00 | 0.00 | 35 | 1018.2 |
| 20260503173438 | 15 | 236 | 4.8 | 12.9 | 0.00 | 0.00 | 0.00 | 39 | 1018.2 |
| 20260503173331 | 15 | 207 | 4.8 | 12.9 | 0.00 | 0.00 | 0.00 | 38 | 1018.3 |
| 20260503173232 | 15 | 295 | 4.8 | 12.9 | 0.00 | 0.00 | 0.00 | 37 | 1018.3 |
| 20260503173132 | 15 | 22 | 4.8 | 12.9 | 0.00 | 0.00 | 0.00 | 36 | 1018.3 |
| 20260503173033 | 15 | 334 | 4.8 | 12.9 | 0.00 | 0.00 | 0.00 | 37 | 1018.3 |
| 20260503172932 | 15 | 18 | 4.8 | 12.9 | 0.00 | 0.00 | 0.00 | 39 | 1018.3 |
| 20260503172826 | 15 | 49 | 4.8 | 12.9 | 0.00 | 0.00 | 0.00 | 40 | 1018.3 |
| 20260503172726 | 14 | 36 | 4.8 | 12.9 | 0.00 | 0.00 | 0.00 | 36 | 1018.2 |
| 20260503172623 | 15 | 138 | 4.8 | 12.9 | 0.00 | 0.00 | 0.00 | 37 | 1018.3 |
| 20260503172525 | 14 | 202 | 3.2 | 12.9 | 0.00 | 0.00 | 0.00 | 37 | 1018.3 |
| 20260503172423 | 14 | 202 | 3.2 | 12.9 | 0.00 | 0.00 | 0.00 | 37 | 1018.3 |
| 20260503172317 | 14 | 186 | 3.2 | 9.7 | 0.00 | 0.00 | 0.00 | 37 | 1018.4 |
| 20260503172216 | 14 | 308 | 3.2 | 12.9 | 0.00 | 0.00 | 0.00 | 38 | 1018.3 |
| 20260503172116 | 14 | 10 | 4.8 | 16.1 | 0.00 | 0.00 | 0.00 | 38 | 1018.3 |
| 20260503172017 | 14 | 9 | 4.8 | 16.1 | 0.00 | 0.00 | 0.00 | 39 | 1018.3 |
| 20260503171917 | 14 | 9 | 4.8 | 16.1 | 0.00 | 0.00 | 0.00 | 36 | 1018.3 |
| 20260503171813 | 14 | 355 | 4.8 | 16.1 | 0.00 | 0.00 | 0.00 | 36 | 1018.3 |
| 20260503171712 | 14 | 355 | 4.8 | 16.1 | 0.00 | 0.00 | 0.00 | 36 | 1018.4 |
| 20260503171612 | 14 | 355 | 4.8 | 16.1 | 0.00 | 0.00 | 0.00 | 37 | 1018.4 |
| 20260503171511 | 14 | 0 | 4.8 | 16.1 | 0.00 | 0.00 | 0.00 | 35 | 1018.4 |
| 20260503171411 | 13 | 302 | 4.8 | 16.1 | 0.00 | 0.00 | 0.00 | 35 | 1018.6 |
| 20260503171306 | 14 | 313 | 4.8 | 16.1 | 0.00 | 0.00 | 0.00 | 34 | 1018.6 |
| 20260503171205 | 14 | 282 | 4.8 | 16.1 | 0.00 | 0.00 | 0.00 | 37 | 1018.6 |
| 20260503171105 | 14 | 337 | 3.2 | 14.5 | 0.00 | 0.00 | 0.00 | 37 | 1018.4 |
| 20260503171007 | 14 | 332 | 3.2 | 14.5 | 0.00 | 0.00 | 0.00 | 38 | 1018.4 |
| 20260503170907 | 14 | 345 | 3.2 | 14.5 | 0.00 | 0.00 | 0.00 | 38 | 1018.6 |
| 20260503170805 | 14 | 355 | 4.8 | 19.3 | 0.00 | 0.00 | 0.00 | 37 | 1018.6 |
| 20260503170706 | 13 | 317 | 4.8 | 19.3 | 0.00 | 0.00 | 0.00 | 37 | 1018.6 |
| 20260503170605 | 13 | 315 | 6.4 | 19.3 | 0.00 | 0.00 | 0.00 | 39 | 1018.6 |
| 20260503170503 | 13 | 274 | 6.4 | 19.3 | 0.00 | 0.00 | 0.00 | 37 | 1018.6 |
| 20260503170404 | 13 | 176 | 6.4 | 19.3 | 0.00 | 0.00 | 0.00 | 36 | 1018.6 |
| 20260503170303 | 13 | 323 | 8.0 | 19.3 | 0.00 | 0.00 | 0.00 | 37 | 1018.6 |
| 20260503170204 | 13 | 323 | 8.0 | 19.3 | 0.00 | 0.00 | 0.00 | 37 | 1018.6 |
| 20260503170104 | 13 | 258 | 8.0 | 19.3 | 0.00 | 0.00 | 0.00 | 39 | 1018.6 |
| 20260503160128 | 11 | 304 | 8.0 | 16.1 | 0.00 | 0.00 | 0.00 | 44 | 1019.4 |
| 20260503150923 | 10 | 314 | 4.8 | 16.1 | 0.00 | 0.00 | 0.00 | 50 | 1019.3 |
| 20260503150823 | 10 | 171 | 4.8 | 16.1 | 0.00 | 0.00 | 0.00 | 50 | 1019.3 |
| 20260503150723 | 10 | 234 | 4.8 | 16.1 | 0.00 | 0.00 | 0.00 | 49 | 1019.2 |
| 20260503150625 | 10 | 292 | 4.8 | 12.9 | 0.00 | 0.00 | 0.00 | 51 | 1019.2 |
| 20260503150525 | 10 | 284 | 4.8 | 17.7 | 0.00 | 0.00 | 0.00 | 51 | 1019.3 |
| 20260503150424 | 10 | 333 | 4.8 | 17.7 | 0.00 | 0.00 | 0.00 | 51 | 1019.2 |
| 20260503150324 | 10 | 242 | 4.8 | 17.7 | 0.00 | 0.00 | 0.00 | 53 | 1019.2 |
| 20260503150223 | 10 | 292 | 4.8 | 17.7 | 0.00 | 0.00 | 0.00 | 52 | 1019.3 |
| 20260503150124 | 10 | 325 | 4.8 | 17.7 | 0.00 | 0.00 | 0.00 | 52 | 1019.3 |
| 20260503140314 | 8 | 355 | 9.7 | 19.3 | 0.00 | 0.00 | 0.00 | 58 | 1019.3 |
| 20260503140214 | 8 | 305 | 8.0 | 17.7 | 0.00 | 0.00 | 0.00 | 61 | 1019.3 |
| 20260503140115 | 8 | 346 | 8.0 | 17.7 | 0.00 | 0.00 | 0.00 | 60 | 1019.4 |
| 20260503131353 | 7 | 22 | 9.7 | 16.1 | 0.00 | 0.00 | 0.00 | 62 | 1019.1 |
| 20260503131251 | 7 | 335 | 9.7 | 16.1 | 0.00 | 0.00 | 0.00 | 62 | 1019.1 |
| 20260503131150 | 7 | 344 | 9.7 | 16.1 | 0.00 | 0.00 | 0.00 | 63 | 1019.1 |
| 20260503131049 | 7 | 347 | 8.0 | 16.1 | 0.00 | 0.00 | 0.00 | 63 | 1019.0 |
| 20260503130947 | 7 | 290 | 8.0 | 16.1 | 0.00 | 0.00 | 0.00 | 62 | 1019.1 |
| 20260503130845 | 7 | 301 | 8.0 | 16.1 | 0.00 | 0.00 | 0.00 | 62 | 1019.0 |
| 20260503130746 | 7 | 311 | 8.0 | 16.1 | 0.00 | 0.00 | 0.00 | 62 | 1019.0 |
| 20260503130646 | 7 | 331 | 8.0 | 16.1 | 0.00 | 0.00 | 0.00 | 62 | 1019.1 |
| 20260503130546 | 7 | 5 | 8.0 | 16.1 | 0.00 | 0.00 | 0.00 | 62 | 1019.1 |
| 20260503130445 | 7 | 5 | 8.0 | 16.1 | 0.00 | 0.00 | 0.00 | 63 | 1019.1 |
| 20260503130344 | 7 | 327 | 8.0 | 16.1 | 0.00 | 0.00 | 0.00 | 64 | 1019.2 |
| 20260503130241 | 7 | 315 | 8.0 | 16.1 | 0.00 | 0.00 | 0.00 | 65 | 1019.1 |
| 20260503130141 | 7 | 344 | 8.0 | 16.1 | 0.00 | 0.00 | 0.00 | 65 | 1019.1 |
| 20260503120147 | 6 | 282 | 3.2 | 11.3 | 0.00 | 0.00 | 0.00 | 65 | 1018.6 |
| 20260503110735 | 5 | 219 | 3.2 | 9.7 | 0.00 | 0.00 | 0.00 | 71 | 1017.9 |
| 20260503110632 | 5 | 219 | 3.2 | 9.7 | 0.00 | 0.00 | 0.00 | 71 | 1017.9 |
| 20260503110529 | 5 | 250 | 3.2 | 9.7 | 0.00 | 0.00 | 0.00 | 71 | 1017.9 |
| 20260503110430 | 5 | 286 | 3.2 | 9.7 | 0.00 | 0.00 | 0.00 | 71 | 1017.8 |
| 20260503110330 | 5 | 236 | 3.2 | 11.3 | 0.00 | 0.00 | 0.00 | 71 | 1017.9 |
| 20260503110230 | 5 | 259 | 3.2 | 11.3 | 0.00 | 0.00 | 0.00 | 71 | 1017.8 |
| 20260503110121 | 5 | 279 | 3.2 | 11.3 | 0.00 | 0.00 | 0.00 | 71 | 1017.8 |
| 20260503100203 | 4 | 275 | 0.0 | 1.6 | 0.00 | 0.00 | 0.00 | 73 | 1017.3 |
| 20260503090439 | 5 | 303 | 9.7 | 19.3 | 0.00 | 0.00 | 0.00 | 69 | 1016.5 |
| 20260503090332 | 5 | 288 | 9.7 | 19.3 | 0.00 | 0.00 | 0.00 | 69 | 1016.5 |
| 20260503090234 | 5 | 311 | 9.7 | 19.3 | 0.00 | 0.00 | 0.00 | 69 | 1016.6 |
| 20260503090134 | 5 | 334 | 9.7 | 19.3 | 0.00 | 0.00 | 0.00 | 69 | 1016.6 |
| 20260503081626 | 5 | 296 | 11.3 | 19.3 | 0.00 | 0.00 | 0.00 | 69 | 1016.3 |
| 20260503081528 | 5 | 298 | 11.3 | 19.3 | 0.00 | 0.00 | 0.00 | 69 | 1016.3 |
| 20260503081427 | 5 | 302 | 9.7 | 19.3 | 0.00 | 0.00 | 0.00 | 68 | 1016.2 |
| 20260503081328 | 5 | 297 | 9.7 | 17.7 | 0.00 | 0.00 | 0.00 | 69 | 1016.2 |
| 20260503081218 | 5 | 325 | 11.3 | 20.9 | 0.00 | 0.00 | 0.00 | 69 | 1016.3 |
| 20260503081116 | 5 | 292 | 11.3 | 20.9 | 0.00 | 0.00 | 0.00 | 69 | 1016.2 |
| 20260503081018 | 5 | 309 | 11.3 | 20.9 | 0.00 | 0.00 | 0.00 | 68 | 1016.3 |
| 20260503080917 | 5 | 279 | 9.7 | 20.9 | 0.00 | 0.00 | 0.00 | 69 | 1016.2 |
| 20260503080817 | 5 | 289 | 9.7 | 20.9 | 0.00 | 0.00 | 0.00 | 69 | 1016.2 |
| 20260503080714 | 5 | 284 | 9.7 | 20.9 | 0.00 | 0.00 | 0.00 | 69 | 1016.2 |
| 20260503080611 | 5 | 300 | 9.7 | 20.9 | 0.00 | 0.00 | 0.00 | 69 | 1016.3 |
| 20260503080512 | 5 | 288 | 9.7 | 20.9 | 0.00 | 0.00 | 0.00 | 69 | 1016.3 |
| 20260503080412 | 5 | 305 | 9.7 | 20.9 | 0.00 | 0.00 | 0.00 | 69 | 1016.2 |
| 20260503080312 | 5 | 295 | 9.7 | 20.9 | 0.00 | 0.00 | 0.00 | 68 | 1016.3 |
| 20260503080205 | 5 | 309 | 9.7 | 17.7 | 0.00 | 0.00 | 0.00 | 68 | 1016.3 |
| 20260503080105 | 5 | 279 | 9.7 | 17.7 | 0.00 | 0.00 | 0.00 | 68 | 1016.3 |
| 20260503072922 | 6 | 292 | 4.8 | 9.7 | 0.00 | 0.00 | 0.00 | 68 | 1016.1 |
| 20260503072821 | 6 | 296 | 4.8 | 9.7 | 0.00 | 0.00 | 0.00 | 68 | 1016.1 |
| 20260503072722 | 6 | 318 | 4.8 | 14.5 | 0.00 | 0.00 | 0.00 | 68 | 1016.1 |
| 20260503072613 | 6 | 311 | 3.2 | 14.5 | 0.00 | 0.00 | 0.00 | 68 | 1016.1 |
| 20260503072512 | 6 | 319 | 4.8 | 14.5 | 0.00 | 0.00 | 0.00 | 68 | 1016.0 |
| 20260503072412 | 6 | 286 | 4.8 | 14.5 | 0.00 | 0.00 | 0.00 | 68 | 1016.1 |
| 20260503072311 | 6 | 279 | 4.8 | 14.5 | 0.00 | 0.00 | 0.00 | 68 | 1016.0 |
| 20260503072211 | 6 | 286 | 4.8 | 14.5 | 0.00 | 0.00 | 0.00 | 68 | 1016.0 |
| 20260503072107 | 6 | 299 | 4.8 | 14.5 | 0.00 | 0.00 | 0.00 | 68 | 1016.0 |
| 20260503072006 | 6 | 317 | 4.8 | 14.5 | 0.00 | 0.00 | 0.00 | 68 | 1016.0 |
| 20260503071907 | 6 | 323 | 6.4 | 14.5 | 0.00 | 0.00 | 0.00 | 68 | 1016.0 |
| 20260503071808 | 6 | 321 | 6.4 | 14.5 | 0.00 | 0.00 | 0.00 | 68 | 1016.0 |
| 20260503071705 | 6 | 306 | 8.0 | 14.5 | 0.00 | 0.00 | 0.00 | 67 | 1015.9 |
| 20260503071600 | 6 | 304 | 8.0 | 14.5 | 0.00 | 0.00 | 0.00 | 67 | 1016.0 |
| 20260503071458 | 6 | 288 | 8.0 | 14.5 | 0.00 | 0.00 | 0.00 | 67 | 1016.0 |
| 20260503071359 | 6 | 348 | 8.0 | 14.5 | 0.00 | 0.00 | 0.00 | 67 | 1016.0 |
| 20260503071258 | 6 | 303 | 8.0 | 14.5 | 0.00 | 0.00 | 0.00 | 67 | 1016.0 |
| 20260503071200 | 6 | 308 | 6.4 | 14.5 | 0.00 | 0.00 | 0.00 | 67 | 1015.9 |
| 20260503071049 | 6 | 303 | 6.4 | 14.5 | 0.00 | 0.00 | 0.00 | 67 | 1015.9 |
| 20260503070949 | 6 | 323 | 6.4 | 14.5 | 0.00 | 0.00 | 0.00 | 67 | 1015.9 |
| 20260503070849 | 6 | 317 | 6.4 | 14.5 | 0.00 | 0.00 | 0.00 | 67 | 1015.8 |
| 20260503070750 | 6 | 301 | 6.4 | 14.5 | 0.00 | 0.00 | 0.00 | 67 | 1015.9 |
| 20260503070649 | 6 | 311 | 6.4 | 14.5 | 0.00 | 0.00 | 0.00 | 67 | 1015.9 |
| 20260503070549 | 6 | 319 | 6.4 | 17.7 | 0.00 | 0.00 | 0.00 | 67 | 1015.9 |
| 20260503070447 | 6 | 314 | 8.0 | 17.7 | 0.00 | 0.00 | 0.00 | 67 | 1015.9 |
| 20260503070345 | 6 | 311 | 8.0 | 17.7 | 0.00 | 0.00 | 0.00 | 67 | 1015.9 |
| 20260503070245 | 6 | 319 | 8.0 | 17.7 | 0.00 | 0.00 | 0.00 | 67 | 1015.8 |
| 20260503070144 | 6 | 314 | 8.0 | 17.7 | 0.00 | 0.00 | 0.00 | 67 | 1015.8 |
| 20260503060257 | 6 | 281 | 3.2 | 6.4 | 0.00 | 0.00 | 0.00 | 68 | 1015.5 |
| 20260503060155 | 6 | 281 | 3.2 | 6.4 | 0.00 | 0.00 | 0.00 | 68 | 1015.6 |
| 20260503055031 | 6 | 306 | 6.4 | 11.3 | 0.00 | 0.00 | 0.00 | 67 | 1015.7 |
| 20260503054932 | 6 | 308 | 6.4 | 12.9 | 0.00 | 0.00 | 0.00 | 67 | 1015.6 |
| 20260503054831 | 6 | 281 | 4.8 | 12.9 | 0.00 | 0.00 | 0.00 | 67 | 1015.6 |
| 20260503054731 | 6 | 299 | 4.8 | 12.9 | 0.00 | 0.00 | 0.00 | 67 | 1015.6 |
| 20260503054630 | 6 | 302 | 4.8 | 12.9 | 0.00 | 0.00 | 0.00 | 67 | 1015.6 |
| 20260503054528 | 6 | 296 | 6.4 | 12.9 | 0.00 | 0.00 | 0.00 | 67 | 1015.6 |
| 20260503054427 | 6 | 298 | 4.8 | 12.9 | 0.00 | 0.00 | 0.00 | 67 | 1015.6 |
| 20260503054327 | 6 | 279 | 4.8 | 12.9 | 0.00 | 0.00 | 0.00 | 67 | 1015.6 |
| 20260503054228 | 6 | 306 | 4.8 | 12.9 | 0.00 | 0.00 | 0.00 | 67 | 1015.7 |
| 20260503054129 | 6 | 289 | 4.8 | 12.9 | 0.00 | 0.00 | 0.00 | 67 | 1015.6 |
| 20260503054026 | 6 | 281 | 4.8 | 12.9 | 0.00 | 0.00 | 0.00 | 67 | 1015.6 |
| 20260503053927 | 6 | 296 | 4.8 | 9.7 | 0.00 | 0.00 | 0.00 | 67 | 1015.6 |
| 20260503053828 | 6 | 305 | 4.8 | 9.7 | 0.00 | 0.00 | 0.00 | 67 | 1015.6 |
| 20260503053729 | 6 | 305 | 4.8 | 9.7 | 0.00 | 0.00 | 0.00 | 67 | 1015.7 |
| 20260503053624 | 6 | 308 | 3.2 | 9.7 | 0.00 | 0.00 | 0.00 | 67 | 1015.7 |
| 20260503053526 | 6 | 292 | 3.2 | 6.4 | 0.00 | 0.00 | 0.00 | 67 | 1015.7 |
| 20260503053425 | 6 | 285 | 3.2 | 6.4 | 0.00 | 0.00 | 0.00 | 67 | 1015.7 |
| 20260503053322 | 6 | 286 | 3.2 | 6.4 | 0.00 | 0.00 | 0.00 | 67 | 1015.6 |
| 20260503053221 | 6 | 288 | 3.2 | 6.4 | 0.00 | 0.00 | 0.00 | 67 | 1015.7 |
| 20260503053121 | 6 | 287 | 3.2 | 6.4 | 0.00 | 0.00 | 0.00 | 67 | 1015.7 |
| 20260503053018 | 6 | 287 | 3.2 | 6.4 | 0.00 | 0.00 | 0.00 | 66 | 1015.6 |
| 20260503052919 | 6 | 284 | 3.2 | 6.4 | 0.00 | 0.00 | 0.00 | 67 | 1015.6 |
| 20260503052818 | 6 | 284 | 3.2 | 6.4 | 0.00 | 0.00 | 0.00 | 66 | 1015.6 |
| 20260503052719 | 6 | 284 | 3.2 | 6.4 | 0.00 | 0.00 | 0.00 | 66 | 1015.6 |
| 20260503052618 | 6 | 290 | 3.2 | 6.4 | 0.00 | 0.00 | 0.00 | 66 | 1015.6 |
| 20260503052520 | 6 | 290 | 3.2 | 6.4 | 0.00 | 0.00 | 0.00 | 66 | 1015.5 |
| 20260503052419 | 6 | 290 | 3.2 | 6.4 | 0.00 | 0.00 | 0.00 | 67 | 1015.6 |
| 20260503052319 | 6 | 290 | 3.2 | 6.4 | 0.00 | 0.00 | 0.00 | 66 | 1015.6 |
| 20260503052218 | 6 | 290 | 1.6 | 6.4 | 0.00 | 0.00 | 0.00 | 66 | 1015.6 |
| 20260503052119 | 6 | 291 | 1.6 | 6.4 | 0.00 | 0.00 | 0.00 | 66 | 1015.5 |
| 20260503052018 | 6 | 291 | 3.2 | 6.4 | 0.00 | 0.00 | 0.00 | 65 | 1015.6 |
| 20260503051918 | 6 | 292 | 3.2 | 6.4 | 0.00 | 0.00 | 0.00 | 66 | 1015.5 |
| 20260503051819 | 6 | 292 | 1.6 | 6.4 | 0.00 | 0.00 | 0.00 | 66 | 1015.6 |
| 20260503051718 | 6 | 294 | 3.2 | 6.4 | 0.00 | 0.00 | 0.00 | 66 | 1015.6 |
| 20260503051619 | 6 | 294 | 3.2 | 6.4 | 0.00 | 0.00 | 0.00 | 66 | 1015.5 |
| 20260503051519 | 6 | 294 | 3.2 | 6.4 | 0.00 | 0.00 | 0.00 | 66 | 1015.6 |
| 20260503051420 | 6 | 294 | 3.2 | 6.4 | 0.00 | 0.00 | 0.00 | 65 | 1015.6 |
| 20260503051318 | 6 | 295 | 3.2 | 6.4 | 0.00 | 0.00 | 0.00 | 65 | 1015.5 |
| 20260503051218 | 6 | 296 | 3.2 | 6.4 | 0.00 | 0.00 | 0.00 | 65 | 1015.5 |
| 20260503051118 | 6 | 296 | 3.2 | 6.4 | 0.00 | 0.00 | 0.00 | 65 | 1015.6 |
| 20260503051018 | 6 | 283 | 3.2 | 4.8 | 0.00 | 0.00 | 0.00 | 65 | 1015.5 |
| 20260503050918 | 6 | 286 | 3.2 | 4.8 | 0.00 | 0.00 | 0.00 | 65 | 1015.5 |
| 20260503050820 | 6 | 287 | 3.2 | 6.4 | 0.00 | 0.00 | 0.00 | 65 | 1015.5 |
| 20260503050714 | 6 | 287 | 3.2 | 6.4 | 0.00 | 0.00 | 0.00 | 65 | 1015.5 |
| 20260503050616 | 6 | 287 | 3.2 | 6.4 | 0.00 | 0.00 | 0.00 | 65 | 1015.4 |
| 20260503050515 | 6 | 287 | 3.2 | 9.7 | 0.00 | 0.00 | 0.00 | 65 | 1015.4 |
| 20260503050414 | 6 | 286 | 3.2 | 9.7 | 0.00 | 0.00 | 0.00 | 65 | 1015.4 |
| 20260503050315 | 6 | 292 | 3.2 | 9.7 | 0.00 | 0.00 | 0.00 | 65 | 1015.5 |
| 20260503050215 | 6 | 309 | 3.2 | 9.7 | 0.00 | 0.00 | 0.00 | 64 | 1015.5 |
| 20260503050115 | 6 | 310 | 3.2 | 9.7 | 0.00 | 0.00 | 0.00 | 64 | 1015.5 |
| 20260503050014 | 6 | 313 | 3.2 | 9.7 | 0.00 | 0.00 | 0.00 | 64 | 1015.5 |
| 20260503045916 | 6 | 313 | 3.2 | 9.7 | 0.00 | 0.00 | 0.00 | 65 | 1015.5 |
| 20260503045814 | 6 | 276 | 1.6 | 9.7 | 0.00 | 0.00 | 0.00 | 64 | 1015.5 |
| 20260503045716 | 7 | 276 | 3.2 | 9.7 | 0.00 | 0.00 | 0.00 | 64 | 1015.5 |
| 20260503045614 | 6 | 276 | 3.2 | 9.7 | 0.00 | 0.00 | 0.00 | 65 | 1015.4 |
| 20260503045514 | 7 | 290 | 3.2 | 6.4 | 0.00 | 0.00 | 0.00 | 64 | 1015.5 |
| 20260503045414 | 7 | 293 | 3.2 | 6.4 | 0.00 | 0.00 | 0.00 | 63 | 1015.5 |
| 20260503045315 | 7 | 293 | 3.2 | 6.4 | 0.00 | 0.00 | 0.00 | 64 | 1015.6 |
| 20260503045214 | 7 | 293 | 3.2 | 6.4 | 0.00 | 0.00 | 0.00 | 63 | 1015.6 |
| 20260503045115 | 7 | 294 | 3.2 | 6.4 | 0.00 | 0.00 | 0.00 | 64 | 1015.5 |
| 20260503045014 | 7 | 294 | 3.2 | 8.0 | 0.00 | 0.00 | 0.00 | 64 | 1015.6 |
| 20260503044914 | 7 | 306 | 3.2 | 9.7 | 0.00 | 0.00 | 0.00 | 64 | 1015.6 |
| 20260503044814 | 7 | 306 | 4.8 | 9.7 | 0.00 | 0.00 | 0.00 | 63 | 1015.6 |
| 20260503044715 | 7 | 306 | 4.8 | 11.3 | 0.00 | 0.00 | 0.00 | 63 | 1015.6 |
| 20260503044614 | 7 | 306 | 4.8 | 11.3 | 0.00 | 0.00 | 0.00 | 63 | 1015.6 |
| 20260503044515 | 7 | 306 | 4.8 | 11.3 | 0.00 | 0.00 | 0.00 | 63 | 1015.7 |
| 20260503044414 | 7 | 306 | 4.8 | 11.3 | 0.00 | 0.00 | 0.00 | 63 | 1015.6 |
| 20260503044314 | 7 | 309 | 6.4 | 12.9 | 0.00 | 0.00 | 0.00 | 62 | 1015.5 |
| 20260503044216 | 7 | 309 | 6.4 | 12.9 | 0.00 | 0.00 | 0.00 | 62 | 1015.5 |
| 20260503044115 | 7 | 309 | 6.4 | 12.9 | 0.00 | 0.00 | 0.00 | 62 | 1015.6 |
| 20260503044014 | 7 | 307 | 6.4 | 12.9 | 0.00 | 0.00 | 0.00 | 62 | 1015.5 |
| 20260503043914 | 7 | 286 | 8.0 | 14.5 | 0.00 | 0.00 | 0.00 | 62 | 1015.6 |
| 20260503043814 | 7 | 289 | 8.0 | 14.5 | 0.00 | 0.00 | 0.00 | 62 | 1015.6 |
| 20260503043715 | 7 | 311 | 8.0 | 14.5 | 0.00 | 0.00 | 0.00 | 62 | 1015.5 |
| 20260503043614 | 7 | 303 | 8.0 | 16.1 | 0.00 | 0.00 | 0.00 | 61 | 1015.6 |
| 20260503043516 | 7 | 307 | 8.0 | 16.1 | 0.00 | 0.00 | 0.00 | 61 | 1015.5 |
| 20260503043411 | 7 | 289 | 8.0 | 16.1 | 0.00 | 0.00 | 0.00 | 61 | 1015.6 |
| 20260503043312 | 7 | 286 | 9.7 | 16.1 | 0.00 | 0.00 | 0.00 | 62 | 1015.5 |
| 20260503043210 | 7 | 302 | 9.7 | 16.1 | 0.00 | 0.00 | 0.00 | 61 | 1015.5 |
| 20260503043112 | 7 | 302 | 9.7 | 16.1 | 0.00 | 0.00 | 0.00 | 61 | 1015.5 |
| 20260503043011 | 7 | 288 | 9.7 | 16.1 | 0.00 | 0.00 | 0.00 | 61 | 1015.5 |
| 20260503042910 | 7 | 300 | 9.7 | 16.1 | 0.00 | 0.00 | 0.00 | 61 | 1015.4 |
| 20260503042810 | 7 | 309 | 9.7 | 16.1 | 0.00 | 0.00 | 0.00 | 60 | 1015.4 |
| 20260503042712 | 7 | 298 | 9.7 | 16.1 | 0.00 | 0.00 | 0.00 | 60 | 1015.4 |
| 20260503042611 | 7 | 267 | 9.7 | 16.1 | 0.00 | 0.00 | 0.00 | 60 | 1015.4 |
| 20260503042510 | 7 | 309 | 11.3 | 20.9 | 0.00 | 0.00 | 0.00 | 60 | 1015.4 |
| 20260503042410 | 7 | 311 | 11.3 | 20.9 | 0.00 | 0.00 | 0.00 | 60 | 1015.4 |
| 20260503042310 | 7 | 292 | 11.3 | 20.9 | 0.00 | 0.00 | 0.00 | 60 | 1015.4 |
| 20260503042211 | 7 | 319 | 11.3 | 20.9 | 0.00 | 0.00 | 0.00 | 60 | 1015.3 |
| 20260503042110 | 7 | 312 | 11.3 | 20.9 | 0.00 | 0.00 | 0.00 | 60 | 1015.4 |
| 20260503042012 | 7 | 302 | 11.3 | 20.9 | 0.00 | 0.00 | 0.00 | 60 | 1015.3 |
| 20260503041910 | 7 | 288 | 11.3 | 20.9 | 0.00 | 0.00 | 0.00 | 60 | 1015.4 |
| 20260503041811 | 7 | 302 | 11.3 | 20.9 | 0.00 | 0.00 | 0.00 | 60 | 1015.3 |
| 20260503041710 | 7 | 312 | 11.3 | 20.9 | 0.00 | 0.00 | 0.00 | 60 | 1015.3 |
| 20260503041611 | 7 | 302 | 11.3 | 20.9 | 0.00 | 0.00 | 0.00 | 60 | 1015.3 |
| 20260503041511 | 7 | 296 | 11.3 | 19.3 | 0.00 | 0.00 | 0.00 | 60 | 1015.3 |
| 20260503041412 | 7 | 319 | 11.3 | 19.3 | 0.00 | 0.00 | 0.00 | 60 | 1015.3 |
| 20260503041310 | 7 | 299 | 11.3 | 19.3 | 0.00 | 0.00 | 0.00 | 60 | 1015.1 |
| 20260503041210 | 7 | 292 | 11.3 | 19.3 | 0.00 | 0.00 | 0.00 | 60 | 1015.3 |
| 20260503041110 | 7 | 281 | 9.7 | 17.7 | 0.00 | 0.00 | 0.00 | 60 | 1015.3 |
| 20260503041011 | 7 | 325 | 9.7 | 17.7 | 0.00 | 0.00 | 0.00 | 60 | 1015.3 |
| 20260503040912 | 7 | 322 | 9.7 | 17.7 | 0.00 | 0.00 | 0.00 | 60 | 1015.3 |
| 20260503040810 | 7 | 330 | 9.7 | 16.1 | 0.00 | 0.00 | 0.00 | 60 | 1015.4 |
| 20260503040710 | 7 | 279 | 9.7 | 16.1 | 0.00 | 0.00 | 0.00 | 60 | 1015.3 |
| 20260503040610 | 7 | 288 | 8.0 | 16.1 | 0.00 | 0.00 | 0.00 | 60 | 1015.4 |
| 20260503040510 | 7 | 283 | 8.0 | 16.1 | 0.00 | 0.00 | 0.00 | 60 | 1015.3 |
| 20260503040411 | 7 | 317 | 8.0 | 16.1 | 0.00 | 0.00 | 0.00 | 60 | 1015.3 |
| 20260503040311 | 7 | 333 | 8.0 | 16.1 | 0.00 | 0.00 | 0.00 | 60 | 1015.3 |
| 20260503040211 | 7 | 313 | 8.0 | 14.5 | 0.00 | 0.00 | 0.00 | 60 | 1015.3 |
| 20260503040107 | 7 | 318 | 8.0 | 14.5 | 0.00 | 0.00 | 0.00 | 60 | 1015.3 |
| 20260503040007 | 7 | 284 | 8.0 | 14.5 | 0.00 | 0.00 | 0.00 | 60 | 1015.3 |
| 20260503035906 | 7 | 267 | 8.0 | 14.5 | 0.00 | 0.00 | 0.00 | 60 | 1015.3 |
| 20260503035807 | 7 | 304 | 8.0 | 14.5 | 0.00 | 0.00 | 0.00 | 60 | 1015.3 |
| 20260503035706 | 7 | 298 | 8.0 | 14.5 | 0.00 | 0.00 | 0.00 | 60 | 1015.3 |
| 20260503035558 | 7 | 288 | 8.0 | 14.5 | 0.00 | 0.00 | 0.00 | 59 | 1015.1 |
| 20260503035458 | 7 | 306 | 9.7 | 16.1 | 0.00 | 0.00 | 0.00 | 59 | 1015.1 |
| 20260503035359 | 7 | 300 | 9.7 | 17.7 | 0.00 | 0.00 | 0.00 | 59 | 1015.1 |
| 20260503035300 | 7 | 292 | 9.7 | 17.7 | 0.00 | 0.00 | 0.00 | 59 | 1015.3 |
| 20260503035159 | 7 | 285 | 9.7 | 17.7 | 0.00 | 0.00 | 0.00 | 59 | 1015.3 |
| 20260503035054 | 7 | 305 | 9.7 | 17.7 | 0.00 | 0.00 | 0.00 | 59 | 1015.3 |
| 20260503034954 | 7 | 294 | 9.7 | 17.7 | 0.00 | 0.00 | 0.00 | 59 | 1015.3 |
| 20260503034850 | 7 | 302 | 9.7 | 17.7 | 0.00 | 0.00 | 0.00 | 59 | 1015.3 |
| 20260503034750 | 7 | 331 | 9.7 | 17.7 | 0.00 | 0.00 | 0.00 | 59 | 1015.1 |
| 20260503034650 | 7 | 310 | 9.7 | 17.7 | 0.00 | 0.00 | 0.00 | 59 | 1015.3 |
| 20260503034550 | 7 | 297 | 8.0 | 17.7 | 0.00 | 0.00 | 0.00 | 59 | 1015.1 |
| 20260503034450 | 7 | 294 | 8.0 | 17.7 | 0.00 | 0.00 | 0.00 | 59 | 1015.3 |
| 20260503034351 | 7 | 303 | 8.0 | 14.5 | 0.00 | 0.00 | 0.00 | 59 | 1015.1 |
| 20260503034252 | 7 | 308 | 8.0 | 12.9 | 0.00 | 0.00 | 0.00 | 59 | 1015.1 |
| 20260503034150 | 7 | 301 | 8.0 | 12.9 | 0.00 | 0.00 | 0.00 | 59 | 1015.1 |
| 20260503034051 | 7 | 304 | 8.0 | 16.1 | 0.00 | 0.00 | 0.00 | 59 | 1015.0 |
| 20260503033950 | 7 | 300 | 9.7 | 16.1 | 0.00 | 0.00 | 0.00 | 59 | 1015.3 |
| 20260503033851 | 8 | 296 | 9.7 | 17.7 | 0.00 | 0.00 | 0.00 | 59 | 1015.0 |
| 20260503033751 | 8 | 299 | 9.7 | 17.7 | 0.00 | 0.00 | 0.00 | 58 | 1015.1 |
| 20260503033651 | 8 | 310 | 9.7 | 19.3 | 0.00 | 0.00 | 0.00 | 59 | 1015.1 |
| 20260503033552 | 8 | 304 | 11.3 | 19.3 | 0.00 | 0.00 | 0.00 | 58 | 1015.1 |
| 20260503033451 | 8 | 298 | 11.3 | 19.3 | 0.00 | 0.00 | 0.00 | 58 | 1015.1 |
| 20260503033245 | 8 | 273 | 11.3 | 19.3 | 0.00 | 0.00 | 0.00 | 58 | 1015.1 |
| 20260503033146 | 7 | 301 | 9.7 | 19.3 | 0.00 | 0.00 | 0.00 | 58 | 1015.1 |
| 20260503033046 | 7 | 306 | 9.7 | 19.3 | 0.00 | 0.00 | 0.00 | 58 | 1015.3 |
| 20260503032945 | 7 | 325 | 9.7 | 19.3 | 0.00 | 0.00 | 0.00 | 58 | 1015.1 |
| 20260503032845 | 7 | 298 | 9.7 | 19.3 | 0.00 | 0.00 | 0.00 | 58 | 1015.1 |
| 20260503032646 | 7 | 312 | 8.0 | 17.7 | 0.00 | 0.00 | 0.00 | 58 | 1015.1 |
| 20260503032545 | 7 | 291 | 6.4 | 17.7 | 0.00 | 0.00 | 0.00 | 59 | 1015.1 |
| 20260503032445 | 7 | 326 | 6.4 | 17.7 | 0.00 | 0.00 | 0.00 | 60 | 1015.1 |
| 20260503032346 | 7 | 311 | 6.4 | 12.9 | 0.00 | 0.00 | 0.00 | 60 | 1015.1 |
| 20260503032246 | 7 | 302 | 6.4 | 12.9 | 0.00 | 0.00 | 0.00 | 60 | 1015.0 |
| 20260503032145 | 7 | 277 | 4.8 | 12.9 | 0.00 | 0.00 | 0.00 | 60 | 1015.0 |
| 20260503032045 | 7 | 286 | 4.8 | 12.9 | 0.00 | 0.00 | 0.00 | 59 | 1015.1 |
| 20260503031944 | 7 | 308 | 4.8 | 12.9 | 0.00 | 0.00 | 0.00 | 60 | 1015.1 |
| 20260503031846 | 7 | 309 | 4.8 | 11.3 | 0.00 | 0.00 | 0.00 | 60 | 1015.1 |
| 20260503031746 | 7 | 317 | 4.8 | 11.3 | 0.00 | 0.00 | 0.00 | 59 | 1015.1 |
| 20260503031642 | 7 | 263 | 4.8 | 8.0 | 0.00 | 0.00 | 0.00 | 59 | 1015.0 |
| 20260503031542 | 7 | 294 | 4.8 | 11.3 | 0.00 | 0.00 | 0.00 | 59 | 1015.0 |
| 20260503031441 | 7 | 296 | 4.8 | 11.3 | 0.00 | 0.00 | 0.00 | 59 | 1015.0 |
| 20260503031342 | 7 | 296 | 4.8 | 11.3 | 0.00 | 0.00 | 0.00 | 59 | 1015.0 |
| 20260503031239 | 8 | 296 | 4.8 | 11.3 | 0.00 | 0.00 | 0.00 | 58 | 1014.9 |
| 20260503031135 | 8 | 294 | 4.8 | 11.3 | 0.00 | 0.00 | 0.00 | 58 | 1015.0 |
| 20260503031036 | 8 | 296 | 6.4 | 11.3 | 0.00 | 0.00 | 0.00 | 58 | 1015.0 |
| 20260503030935 | 8 | 295 | 6.4 | 11.3 | 0.00 | 0.00 | 0.00 | 58 | 1015.0 |
| 20260503030836 | 8 | 275 | 6.4 | 11.3 | 0.00 | 0.00 | 0.00 | 57 | 1015.0 |
| 20260503030733 | 8 | 296 | 6.4 | 11.3 | 0.00 | 0.00 | 0.00 | 57 | 1015.0 |
| 20260503030631 | 8 | 312 | 6.4 | 11.3 | 0.00 | 0.00 | 0.00 | 57 | 1014.9 |
| 20260503030530 | 8 | 310 | 6.4 | 11.3 | 0.00 | 0.00 | 0.00 | 57 | 1015.0 |
| 20260503030430 | 8 | 297 | 4.8 | 11.3 | 0.00 | 0.00 | 0.00 | 58 | 1015.0 |
| 20260503030331 | 8 | 296 | 6.4 | 11.3 | 0.00 | 0.00 | 0.00 | 58 | 1015.0 |
| 20260503030230 | 8 | 302 | 6.4 | 11.3 | 0.00 | 0.00 | 0.00 | 58 | 1015.0 |
| 20260503030131 | 8 | 300 | 6.4 | 11.3 | 0.00 | 0.00 | 0.00 | 57 | 1015.0 |
| 20260503030031 | 8 | 313 | 6.4 | 11.3 | 0.00 | 0.00 | 0.00 | 57 | 1015.0 |
| 20260503025931 | 8 | 302 | 8.0 | 12.9 | 0.00 | 0.00 | 0.00 | 57 | 1015.0 |
| 20260503025829 | 8 | 301 | 8.0 | 14.5 | 0.00 | 0.00 | 0.00 | 57 | 1015.0 |
| 20260503025729 | 8 | 298 | 8.0 | 14.5 | 0.00 | 0.00 | 0.00 | 57 | 1015.0 |
| 20260503025628 | 8 | 299 | 8.0 | 14.5 | 0.00 | 0.00 | 0.00 | 57 | 1015.1 |
| 20260503025530 | 8 | 299 | 8.0 | 14.5 | 0.00 | 0.00 | 0.00 | 57 | 1015.0 |
| 20260503025429 | 8 | 293 | 8.0 | 14.5 | 0.00 | 0.00 | 0.00 | 57 | 1014.9 |
| 20260503025328 | 8 | 302 | 8.0 | 14.5 | 0.00 | 0.00 | 0.00 | 56 | 1014.9 |
| 20260503025228 | 8 | 288 | 8.0 | 14.5 | 0.00 | 0.00 | 0.00 | 57 | 1014.9 |
| 20260503025130 | 8 | 282 | 8.0 | 14.5 | 0.00 | 0.00 | 0.00 | 56 | 1014.9 |
| 20260503025030 | 8 | 318 | 9.7 | 14.5 | 0.00 | 0.00 | 0.00 | 56 | 1014.9 |
| 20260503024930 | 8 | 290 | 8.0 | 14.5 | 0.00 | 0.00 | 0.00 | 56 | 1014.9 |
| 20260503024829 | 8 | 301 | 8.0 | 14.5 | 0.00 | 0.00 | 0.00 | 57 | 1014.9 |
| 20260503024726 | 8 | 313 | 8.0 | 14.5 | 0.00 | 0.00 | 0.00 | 56 | 1014.9 |
| 20260503024625 | 8 | 306 | 9.7 | 14.5 | 0.00 | 0.00 | 0.00 | 56 | 1014.8 |
| 20260503024525 | 8 | 307 | 9.7 | 14.5 | 0.00 | 0.00 | 0.00 | 56 | 1014.9 |
| 20260503024426 | 8 | 309 | 9.7 | 14.5 | 0.00 | 0.00 | 0.00 | 56 | 1014.8 |
| 20260503024325 | 8 | 284 | 9.7 | 14.5 | 0.00 | 0.00 | 0.00 | 56 | 1014.8 |
| 20260503024224 | 8 | 299 | 9.7 | 14.5 | 0.00 | 0.00 | 0.00 | 56 | 1014.8 |
| 20260503024126 | 8 | 313 | 8.0 | 14.5 | 0.00 | 0.00 | 0.00 | 56 | 1014.8 |
| 20260503024024 | 8 | 301 | 8.0 | 14.5 | 0.00 | 0.00 | 0.00 | 56 | 1014.8 |
| 20260503023925 | 8 | 306 | 8.0 | 14.5 | 0.00 | 0.00 | 0.00 | 56 | 1014.9 |
| 20260503023826 | 8 | 284 | 8.0 | 14.5 | 0.00 | 0.00 | 0.00 | 56 | 1014.8 |
| 20260503023725 | 8 | 286 | 8.0 | 14.5 | 0.00 | 0.00 | 0.00 | 56 | 1014.8 |
| 20260503023625 | 8 | 292 | 8.0 | 14.5 | 0.00 | 0.00 | 0.00 | 56 | 1014.9 |
| 20260503023524 | 8 | 303 | 8.0 | 14.5 | 0.00 | 0.00 | 0.00 | 56 | 1014.8 |
| 20260503023425 | 8 | 284 | 8.0 | 14.5 | 0.00 | 0.00 | 0.00 | 57 | 1014.8 |
| 20260503023325 | 8 | 297 | 8.0 | 14.5 | 0.00 | 0.00 | 0.00 | 56 | 1014.8 |
| 20260503023224 | 8 | 294 | 6.4 | 14.5 | 0.00 | 0.00 | 0.00 | 56 | 1014.9 |
| 20260503023125 | 8 | 290 | 6.4 | 14.5 | 0.00 | 0.00 | 0.00 | 56 | 1014.9 |
| 20260503023024 | 8 | 285 | 6.4 | 12.9 | 0.00 | 0.00 | 0.00 | 56 | 1014.9 |
| 20260503022925 | 8 | 302 | 6.4 | 12.9 | 0.00 | 0.00 | 0.00 | 56 | 1014.9 |
| 20260503022824 | 8 | 306 | 6.4 | 12.9 | 0.00 | 0.00 | 0.00 | 56 | 1014.9 |
| 20260503022725 | 8 | 306 | 6.4 | 12.9 | 0.00 | 0.00 | 0.00 | 56 | 1014.8 |
| 20260503022625 | 8 | 307 | 6.4 | 12.9 | 0.00 | 0.00 | 0.00 | 56 | 1014.9 |
| 20260503022525 | 8 | 317 | 6.4 | 12.9 | 0.00 | 0.00 | 0.00 | 56 | 1015.0 |
| 20260503022425 | 8 | 288 | 6.4 | 12.9 | 0.00 | 0.00 | 0.00 | 56 | 1014.8 |
| 20260503022325 | 8 | 300 | 8.0 | 12.9 | 0.00 | 0.00 | 0.00 | 57 | 1014.9 |
| 20260503022226 | 8 | 292 | 8.0 | 12.9 | 0.00 | 0.00 | 0.00 | 57 | 1014.8 |
| 20260503022124 | 8 | 298 | 8.0 | 12.9 | 0.00 | 0.00 | 0.00 | 56 | 1014.9 |
| 20260503022025 | 8 | 292 | 8.0 | 16.1 | 0.00 | 0.00 | 0.00 | 56 | 1014.8 |
| 20260503021924 | 8 | 294 | 9.7 | 16.1 | 0.00 | 0.00 | 0.00 | 56 | 1014.8 |
| 20260503021824 | 8 | 286 | 9.7 | 16.1 | 0.00 | 0.00 | 0.00 | 56 | 1014.9 |
| 20260503021726 | 8 | 304 | 9.7 | 16.1 | 0.00 | 0.00 | 0.00 | 55 | 1014.8 |
| 20260503021624 | 8 | 285 | 9.7 | 16.1 | 0.00 | 0.00 | 0.00 | 55 | 1014.9 |
| 20260503021525 | 8 | 306 | 9.7 | 16.1 | 0.00 | 0.00 | 0.00 | 55 | 1014.8 |
| 20260503021421 | 8 | 333 | 11.3 | 16.1 | 0.00 | 0.00 | 0.00 | 55 | 1014.9 |
| 20260503021320 | 8 | 289 | 11.3 | 16.1 | 0.00 | 0.00 | 0.00 | 55 | 1014.9 |
| 20260503021221 | 8 | 290 | 11.3 | 22.5 | 0.00 | 0.00 | 0.00 | 55 | 1014.8 |
| 20260503021121 | 8 | 302 | 11.3 | 22.5 | 0.00 | 0.00 | 0.00 | 55 | 1015.0 |
| 20260503021021 | 8 | 306 | 11.3 | 22.5 | 0.00 | 0.00 | 0.00 | 55 | 1014.9 |
| 20260503020920 | 8 | 311 | 11.3 | 22.5 | 0.00 | 0.00 | 0.00 | 55 | 1014.9 |
| 20260503020820 | 8 | 300 | 11.3 | 22.5 | 0.00 | 0.00 | 0.00 | 55 | 1014.8 |
| 20260503020722 | 8 | 290 | 11.3 | 22.5 | 0.00 | 0.00 | 0.00 | 55 | 1014.8 |
| 20260503020621 | 8 | 286 | 12.9 | 22.5 | 0.00 | 0.00 | 0.00 | 55 | 1014.8 |
| 20260503020520 | 8 | 320 | 12.9 | 22.5 | 0.00 | 0.00 | 0.00 | 54 | 1014.9 |
| 20260503020420 | 8 | 284 | 12.9 | 22.5 | 0.00 | 0.00 | 0.00 | 54 | 1014.8 |
| 20260503020321 | 8 | 329 | 12.9 | 22.5 | 0.00 | 0.00 | 0.00 | 54 | 1014.8 |
| 20260503020220 | 8 | 293 | 12.9 | 24.1 | 0.00 | 0.00 | 0.00 | 54 | 1014.8 |
| 20260503020122 | 8 | 305 | 14.5 | 24.1 | 0.00 | 0.00 | 0.00 | 54 | 1014.8 |
| 20260503020021 | 8 | 319 | 14.5 | 24.1 | 0.00 | 0.00 | 0.00 | 54 | 1014.8 |
| 20260503015920 | 8 | 305 | 14.5 | 24.1 | 0.00 | 0.00 | 0.00 | 54 | 1014.7 |
| 20260503015820 | 8 | 294 | 14.5 | 24.1 | 0.00 | 0.00 | 0.00 | 54 | 1014.8 |
| 20260503015720 | 8 | 290 | 14.5 | 24.1 | 0.00 | 0.00 | 0.00 | 54 | 1014.7 |
| 20260503015620 | 8 | 338 | 14.5 | 24.1 | 0.00 | 0.00 | 0.00 | 54 | 1014.7 |
| 20260503015521 | 8 | 331 | 14.5 | 24.1 | 0.00 | 0.00 | 0.00 | 54 | 1014.7 |
| 20260503015421 | 8 | 333 | 14.5 | 24.1 | 0.00 | 0.00 | 0.00 | 54 | 1014.6 |
| 20260503015321 | 8 | 317 | 14.5 | 24.1 | 0.00 | 0.00 | 0.00 | 54 | 1014.6 |
| 20260503015220 | 8 | 317 | 14.5 | 24.1 | 0.00 | 0.00 | 0.00 | 54 | 1014.6 |
| 20260503015120 | 8 | 317 | 14.5 | 22.5 | 0.00 | 0.00 | 0.00 | 54 | 1014.6 |
| 20260503015022 | 8 | 286 | 14.5 | 22.5 | 0.00 | 0.00 | 0.00 | 54 | 1014.6 |
| 20260503014922 | 8 | 300 | 14.5 | 22.5 | 0.00 | 0.00 | 0.00 | 53 | 1014.6 |
| 20260503014821 | 8 | 323 | 14.5 | 22.5 | 0.00 | 0.00 | 0.00 | 54 | 1014.5 |
| 20260503014720 | 8 | 341 | 14.5 | 22.5 | 0.00 | 0.00 | 0.00 | 54 | 1014.6 |
| 20260503014620 | 8 | 310 | 12.9 | 22.5 | 0.00 | 0.00 | 0.00 | 54 | 1014.5 |
| 20260503014521 | 9 | 300 | 12.9 | 22.5 | 0.00 | 0.00 | 0.00 | 54 | 1014.5 |
| 20260503014420 | 9 | 285 | 14.5 | 25.7 | 0.00 | 0.00 | 0.00 | 54 | 1014.6 |
| 20260503014322 | 8 | 306 | 14.5 | 25.7 | 0.00 | 0.00 | 0.00 | 53 | 1014.6 |
| 20260503014222 | 9 | 283 | 14.5 | 25.7 | 0.00 | 0.00 | 0.00 | 53 | 1014.5 |
| 20260503014117 | 9 | 286 | 14.5 | 25.7 | 0.00 | 0.00 | 0.00 | 54 | 1014.6 |
| 20260503014017 | 9 | 345 | 14.5 | 25.7 | 0.00 | 0.00 | 0.00 | 54 | 1014.5 |
| 20260503013917 | 9 | 297 | 16.1 | 25.7 | 0.00 | 0.00 | 0.00 | 54 | 1014.6 |
| 20260503013817 | 9 | 289 | 16.1 | 25.7 | 0.00 | 0.00 | 0.00 | 54 | 1014.5 |
| 20260503013716 | 9 | 302 | 16.1 | 25.7 | 0.00 | 0.00 | 0.00 | 54 | 1014.4 |
| 20260503013616 | 9 | 322 | 16.1 | 25.7 | 0.00 | 0.00 | 0.00 | 53 | 1014.4 |
| 20260503013517 | 9 | 313 | 17.7 | 27.4 | 0.00 | 0.00 | 0.00 | 53 | 1014.3 |
| 20260503013416 | 9 | 295 | 16.1 | 27.4 | 0.00 | 0.00 | 0.00 | 53 | 1014.3 |
| 20260503013316 | 9 | 296 | 17.7 | 27.4 | 0.00 | 0.00 | 0.00 | 53 | 1014.3 |
| 20260503013216 | 9 | 288 | 17.7 | 30.6 | 0.00 | 0.00 | 0.00 | 53 | 1014.3 |
| 20260503013117 | 9 | 321 | 19.3 | 30.6 | 0.00 | 0.00 | 0.00 | 53 | 1014.3 |
| 20260503013016 | 9 | 321 | 19.3 | 30.6 | 0.00 | 0.00 | 0.00 | 53 | 1014.3 |
| 20260503012917 | 9 | 313 | 19.3 | 30.6 | 0.00 | 0.00 | 0.00 | 53 | 1014.3 |
| 20260503012817 | 9 | 319 | 19.3 | 30.6 | 0.00 | 0.00 | 0.00 | 52 | 1014.2 |
| 20260503012718 | 9 | 302 | 19.3 | 30.6 | 0.00 | 0.00 | 0.00 | 53 | 1014.3 |
| 20260503012616 | 9 | 334 | 19.3 | 30.6 | 0.00 | 0.00 | 0.00 | 52 | 1014.2 |
| 20260503012516 | 9 | 317 | 19.3 | 30.6 | 0.00 | 0.00 | 0.00 | 53 | 1014.1 |
| 20260503012417 | 9 | 297 | 19.3 | 30.6 | 0.00 | 0.00 | 0.00 | 53 | 1014.1 |
| 20260503012316 | 9 | 310 | 19.3 | 30.6 | 0.00 | 0.00 | 0.00 | 53 | 1014.1 |
| 20260503012217 | 9 | 328 | 19.3 | 27.4 | 0.00 | 0.00 | 0.00 | 53 | 1014.0 |
| 20260503012116 | 9 | 313 | 19.3 | 27.4 | 0.00 | 0.00 | 0.00 | 53 | 1014.1 |
| 20260503012017 | 9 | 312 | 17.7 | 27.4 | 0.00 | 0.00 | 0.00 | 53 | 1014.0 |
| 20260503011916 | 9 | 312 | 17.7 | 27.4 | 0.00 | 0.00 | 0.00 | 54 | 1014.0 |
| 20260503011816 | 9 | 300 | 17.7 | 27.4 | 0.00 | 0.00 | 0.00 | 54 | 1014.0 |
| 20260503011717 | 9 | 317 | 16.1 | 27.4 | 0.00 | 0.00 | 0.00 | 54 | 1014.0 |
| 20260503011617 | 9 | 302 | 16.1 | 27.4 | 0.00 | 0.00 | 0.00 | 54 | 1014.0 |
| 20260503011509 | 9 | 275 | 14.5 | 27.4 | 0.00 | 0.00 | 0.00 | 55 | 1014.1 |
| 20260503011410 | 9 | 310 | 14.5 | 27.4 | 0.00 | 0.00 | 0.00 | 55 | 1014.0 |
| 20260503011310 | 9 | 313 | 14.5 | 27.4 | 0.00 | 0.00 | 0.00 | 55 | 1014.0 |
| 20260503011209 | 9 | 325 | 14.5 | 24.1 | 0.00 | 0.00 | 0.00 | 55 | 1014.0 |
| 20260503011108 | 9 | 325 | 14.5 | 22.5 | 0.00 | 0.00 | 0.00 | 55 | 1014.0 |
| 20260503011008 | 9 | 296 | 14.5 | 22.5 | 0.00 | 0.00 | 0.00 | 55 | 1014.0 |
| 20260503010908 | 9 | 286 | 14.5 | 22.5 | 0.00 | 0.00 | 0.00 | 55 | 1014.0 |
| 20260503010809 | 9 | 267 | 14.5 | 22.5 | 0.00 | 0.00 | 0.00 | 55 | 1014.0 |
| 20260503010708 | 9 | 328 | 14.5 | 22.5 | 0.00 | 0.00 | 0.00 | 56 | 1014.0 |
| 20260503010609 | 9 | 309 | 14.5 | 22.5 | 0.00 | 0.00 | 0.00 | 55 | 1014.0 |
| 20260503010508 | 9 | 319 | 14.5 | 22.5 | 0.00 | 0.00 | 0.00 | 55 | 1013.9 |
| 20260503010408 | 9 | 318 | 14.5 | 22.5 | 0.00 | 0.00 | 0.00 | 55 | 1014.0 |
| 20260503010310 | 9 | 302 | 16.1 | 22.5 | 0.00 | 0.00 | 0.00 | 55 | 1014.0 |
| 20260503010208 | 9 | 317 | 14.5 | 22.5 | 0.00 | 0.00 | 0.00 | 55 | 1014.0 |
| 20260503010109 | 9 | 289 | 14.5 | 22.5 | 0.00 | 0.00 | 0.00 | 55 | 1013.9 |
| 20260503010008 | 9 | 290 | 14.5 | 22.5 | 0.00 | 0.00 | 0.00 | 55 | 1013.9 |
| 20260503005908 | 9 | 298 | 14.5 | 19.3 | 0.00 | 0.00 | 0.00 | 55 | 1014.0 |
| 20260503005808 | 9 | 305 | 12.9 | 19.3 | 0.00 | 0.00 | 0.00 | 55 | 1013.8 |
| 20260503005709 | 9 | 309 | 12.9 | 19.3 | 0.00 | 0.00 | 0.00 | 55 | 1013.8 |
| 20260503005609 | 9 | 281 | 12.9 | 19.3 | 0.00 | 0.00 | 0.00 | 55 | 1013.9 |
| 20260503005508 | 9 | 325 | 12.9 | 19.3 | 0.00 | 0.00 | 0.00 | 55 | 1013.8 |
| 20260503005408 | 9 | 331 | 11.3 | 19.3 | 0.00 | 0.00 | 0.00 | 55 | 1013.8 |
| 20260503005310 | 9 | 311 | 11.3 | 19.3 | 0.00 | 0.00 | 0.00 | 55 | 1013.8 |
| 20260503005208 | 9 | 308 | 11.3 | 19.3 | 0.00 | 0.00 | 0.00 | 55 | 1013.8 |
| 20260503005109 | 9 | 332 | 11.3 | 19.3 | 0.00 | 0.00 | 0.00 | 55 | 1013.8 |
| 20260503005010 | 9 | 274 | 11.3 | 19.3 | 0.00 | 0.00 | 0.00 | 55 | 1013.7 |
| 20260503004908 | 9 | 300 | 11.3 | 19.3 | 0.00 | 0.00 | 0.00 | 55 | 1013.7 |
| 20260503004809 | 10 | 324 | 11.3 | 19.3 | 0.00 | 0.00 | 0.00 | 55 | 1013.9 |
| 20260503004708 | 10 | 311 | 11.3 | 19.3 | 0.00 | 0.00 | 0.00 | 55 | 1013.7 |
| 20260503004608 | 10 | 319 | 11.3 | 17.7 | 0.00 | 0.00 | 0.00 | 55 | 1013.7 |
| 20260503004509 | 10 | 315 | 11.3 | 17.7 | 0.00 | 0.00 | 0.00 | 55 | 1013.8 |
| 20260503004410 | 10 | 297 | 11.3 | 17.7 | 0.00 | 0.00 | 0.00 | 55 | 1013.7 |
| 20260503004309 | 10 | 304 | 11.3 | 17.7 | 0.00 | 0.00 | 0.00 | 55 | 1013.5 |
| 20260503004204 | 10 | 327 | 11.3 | 17.7 | 0.00 | 0.00 | 0.00 | 55 | 1013.7 |
| 20260503004105 | 10 | 296 | 12.9 | 16.1 | 0.00 | 0.00 | 0.00 | 55 | 1013.7 |
| 20260503004004 | 10 | 304 | 12.9 | 17.7 | 0.00 | 0.00 | 0.00 | 55 | 1013.5 |
| 20260503003904 | 10 | 292 | 12.9 | 17.7 | 0.00 | 0.00 | 0.00 | 55 | 1013.5 |
| 20260503003805 | 10 | 298 | 12.9 | 20.9 | 0.00 | 0.00 | 0.00 | 54 | 1013.7 |
| 20260503003705 | 10 | 304 | 12.9 | 24.1 | 0.00 | 0.00 | 0.00 | 54 | 1013.7 |
| 20260503003606 | 10 | 313 | 12.9 | 24.1 | 0.00 | 0.00 | 0.00 | 54 | 1013.7 |
| 20260503003502 | 10 | 292 | 14.5 | 24.1 | 0.00 | 0.00 | 0.00 | 54 | 1013.5 |
| 20260503003402 | 10 | 286 | 14.5 | 24.1 | 0.00 | 0.00 | 0.00 | 54 | 1013.5 |
| 20260503003302 | 10 | 308 | 14.5 | 24.1 | 0.00 | 0.00 | 0.00 | 53 | 1013.4 |
| 20260503003203 | 10 | 275 | 14.5 | 24.1 | 0.00 | 0.00 | 0.00 | 53 | 1013.5 |
| 20260503003103 | 10 | 313 | 14.5 | 24.1 | 0.00 | 0.00 | 0.00 | 54 | 1013.4 |
| 20260503003002 | 10 | 309 | 14.5 | 24.1 | 0.00 | 0.00 | 0.00 | 53 | 1013.4 |
| 20260503002902 | 10 | 309 | 14.5 | 24.1 | 0.00 | 0.00 | 0.00 | 53 | 1013.4 |
| 20260503002804 | 10 | 301 | 14.5 | 24.1 | 0.00 | 0.00 | 0.00 | 53 | 1013.3 |
| 20260503002703 | 10 | 319 | 14.5 | 20.9 | 0.00 | 0.00 | 0.00 | 53 | 1013.3 |
| 20260503002602 | 10 | 298 | 14.5 | 20.9 | 0.00 | 0.00 | 0.00 | 53 | 1013.3 |
| 20260503002456 | 10 | 317 | 14.5 | 20.9 | 0.00 | 0.00 | 0.00 | 53 | 1013.3 |
| 20260503002358 | 10 | 306 | 14.5 | 20.9 | 0.00 | 0.00 | 0.00 | 53 | 1013.3 |
| 20260503002259 | 10 | 315 | 14.5 | 22.5 | 0.00 | 0.00 | 0.00 | 53 | 1013.2 |
| 20260503002157 | 10 | 327 | 14.5 | 22.5 | 0.00 | 0.00 | 0.00 | 53 | 1013.3 |
| 20260503002056 | 10 | 307 | 14.5 | 22.5 | 0.00 | 0.00 | 0.00 | 53 | 1013.3 |
| 20260503001954 | 10 | 318 | 16.1 | 22.5 | 0.00 | 0.00 | 0.00 | 53 | 1013.2 |
| 20260503001854 | 10 | 321 | 16.1 | 22.5 | 0.00 | 0.00 | 0.00 | 52 | 1013.2 |
| 20260503001754 | 10 | 317 | 16.1 | 24.1 | 0.00 | 0.00 | 0.00 | 52 | 1013.3 |
| 20260503001655 | 10 | 312 | 16.1 | 24.1 | 0.00 | 0.00 | 0.00 | 52 | 1013.2 |
| 20260503001554 | 10 | 299 | 16.1 | 24.1 | 0.00 | 0.00 | 0.00 | 52 | 1013.1 |
| 20260503001455 | 10 | 311 | 16.1 | 24.1 | 0.00 | 0.00 | 0.00 | 51 | 1013.1 |
| 20260503001354 | 10 | 320 | 16.1 | 24.1 | 0.00 | 0.00 | 0.00 | 51 | 1013.2 |
| 20260503001252 | 10 | 283 | 16.1 | 24.1 | 0.00 | 0.00 | 0.00 | 52 | 1013.0 |
| 20260503001152 | 10 | 317 | 16.1 | 24.1 | 0.00 | 0.00 | 0.00 | 51 | 1013.1 |
| 20260503001052 | 10 | 331 | 16.1 | 24.1 | 0.00 | 0.00 | 0.00 | 52 | 1013.1 |
| 20260503000951 | 10 | 342 | 16.1 | 24.1 | 0.00 | 0.00 | 0.00 | 51 | 1013.0 |
| 20260503000850 | 10 | 323 | 14.5 | 24.1 | 0.00 | 0.00 | 0.00 | 52 | 1013.1 |
| 20260503000748 | 10 | 316 | 16.1 | 22.5 | 0.00 | 0.00 | 0.00 | 51 | 1013.0 |
| 20260503000648 | 10 | 311 | 16.1 | 22.5 | 0.00 | 0.00 | 0.00 | 51 | 1013.0 |
| 20260503000548 | 10 | 316 | 16.1 | 22.5 | 0.00 | 0.00 | 0.00 | 51 | 1013.0 |
| 20260503000450 | 11 | 322 | 16.1 | 25.7 | 0.00 | 0.00 | 0.00 | 51 | 1013.1 |
| 20260503000348 | 11 | 304 | 16.1 | 25.7 | 0.00 | 0.00 | 0.00 | 51 | 1013.0 |
| 20260503000243 | 11 | 292 | 16.1 | 25.7 | 0.00 | 0.00 | 0.00 | 51 | 1013.0 |
| 20260503000142 | 11 | 310 | 16.1 | 25.7 | 0.00 | 0.00 | 0.00 | 51 | 1013.0 |
| 20260503000044 | 11 | 333 | 16.1 | 25.7 | 0.00 | 0.00 | 0.00 | 51 | 1012.9 |
| 20260502235943 | 11 | 306 | 16.1 | 25.7 | 0.00 | 0.00 | 0.00 | 51 | 1013.0 |
| 20260502235843 | 11 | 309 | 17.7 | 25.7 | 0.00 | 0.00 | 0.00 | 50 | 1012.9 |
| 20260502235738 | 11 | 302 | 17.7 | 25.7 | 0.00 | 0.00 | 0.00 | 50 | 1012.9 |
| 20260502235638 | 11 | 318 | 17.7 | 25.7 | 0.00 | 0.00 | 0.00 | 50 | 1012.9 |
| 20260502235539 | 11 | 311 | 16.1 | 25.7 | 0.00 | 0.00 | 0.00 | 50 | 1013.0 |
| 20260502235439 | 11 | 298 | 17.7 | 25.7 | 0.00 | 0.00 | 0.00 | 50 | 1012.9 |
| 20260502235339 | 11 | 293 | 17.7 | 29.0 | 0.00 | 0.00 | 0.00 | 50 | 1012.9 |
| 20260502235238 | 11 | 299 | 17.7 | 29.0 | 0.00 | 0.00 | 0.00 | 50 | 1012.9 |
| 20260502235138 | 11 | 320 | 17.7 | 29.0 | 0.00 | 0.00 | 0.00 | 50 | 1012.8 |
| 20260502235038 | 11 | 273 | 19.3 | 29.0 | 0.00 | 0.00 | 0.00 | 50 | 1012.8 |
| 20260502234938 | 11 | 338 | 19.3 | 29.0 | 0.00 | 0.00 | 0.00 | 49 | 1012.8 |
| 20260502234839 | 11 | 317 | 19.3 | 33.8 | 0.00 | 0.00 | 0.00 | 50 | 1012.8 |
| 20260502234739 | 11 | 271 | 19.3 | 33.8 | 0.00 | 0.00 | 0.00 | 50 | 1012.7 |
| 20260502234636 | 11 | 308 | 19.3 | 33.8 | 0.00 | 0.00 | 0.00 | 50 | 1012.7 |
| 20260502234534 | 11 | 345 | 19.3 | 33.8 | 0.00 | 0.00 | 0.00 | 49 | 1012.7 |
| 20260502234435 | 11 | 280 | 19.3 | 33.8 | 0.00 | 0.00 | 0.00 | 49 | 1012.6 |
| 20260502234334 | 11 | 306 | 17.7 | 33.8 | 0.00 | 0.00 | 0.00 | 49 | 1012.7 |
| 20260502234234 | 11 | 284 | 17.7 | 33.8 | 0.00 | 0.00 | 0.00 | 49 | 1012.7 |
| 20260502234135 | 11 | 299 | 17.7 | 33.8 | 0.00 | 0.00 | 0.00 | 49 | 1012.6 |
| 20260502234034 | 11 | 310 | 17.7 | 33.8 | 0.00 | 0.00 | 0.00 | 49 | 1012.5 |
| 20260502233934 | 11 | 327 | 17.7 | 33.8 | 0.00 | 0.00 | 0.00 | 49 | 1012.6 |
| 20260502233835 | 11 | 333 | 17.7 | 29.0 | 0.00 | 0.00 | 0.00 | 49 | 1012.6 |
| 20260502233734 | 11 | 338 | 17.7 | 29.0 | 0.00 | 0.00 | 0.00 | 49 | 1012.6 |
| 20260502233634 | 11 | 310 | 19.3 | 30.6 | 0.00 | 0.00 | 0.00 | 48 | 1012.5 |
| 20260502233534 | 11 | 315 | 19.3 | 30.6 | 0.00 | 0.00 | 0.00 | 49 | 1012.5 |
| 20260502233433 | 11 | 307 | 19.3 | 30.6 | 0.00 | 0.00 | 0.00 | 49 | 1012.6 |
| 20260502233332 | 11 | 338 | 19.3 | 30.6 | 0.00 | 0.00 | 0.00 | 48 | 1012.4 |
| 20260502233232 | 11 | 306 | 19.3 | 30.6 | 0.00 | 0.00 | 0.00 | 47 | 1012.5 |
| 20260502233131 | 12 | 333 | 19.3 | 30.6 | 0.00 | 0.00 | 0.00 | 47 | 1012.5 |
| 20260502233027 | 12 | 335 | 19.3 | 30.6 | 0.00 | 0.00 | 0.00 | 47 | 1012.4 |
| 20260502232926 | 12 | 306 | 19.3 | 30.6 | 0.00 | 0.00 | 0.00 | 47 | 1012.4 |
| 20260502232825 | 12 | 296 | 19.3 | 30.6 | 0.00 | 0.00 | 0.00 | 47 | 1012.4 |
| 20260502232728 | 12 | 326 | 17.7 | 29.0 | 0.00 | 0.00 | 0.00 | 47 | 1012.3 |
| 20260502232627 | 12 | 309 | 17.7 | 29.0 | 0.00 | 0.00 | 0.00 | 47 | 1012.4 |
| 20260502232527 | 12 | 319 | 16.1 | 29.0 | 0.00 | 0.00 | 0.00 | 47 | 1012.4 |
| 20260502232427 | 12 | 296 | 16.1 | 29.0 | 0.00 | 0.00 | 0.00 | 47 | 1012.4 |
| 20260502232321 | 12 | 346 | 16.1 | 29.0 | 0.00 | 0.00 | 0.00 | 47 | 1012.4 |
| 20260502232222 | 12 | 275 | 16.1 | 29.0 | 0.00 | 0.00 | 0.00 | 47 | 1012.4 |
| 20260502232121 | 12 | 344 | 16.1 | 29.0 | 0.00 | 0.00 | 0.00 | 47 | 1012.3 |
| 20260502232020 | 12 | 330 | 16.1 | 30.6 | 0.00 | 0.00 | 0.00 | 47 | 1012.4 |
| 20260502231921 | 12 | 314 | 16.1 | 30.6 | 0.00 | 0.00 | 0.00 | 47 | 1012.3 |
| 20260502231815 | 12 | 319 | 17.7 | 30.6 | 0.00 | 0.00 | 0.00 | 47 | 1012.3 |
| 20260502231715 | 12 | 327 | 17.7 | 30.6 | 0.00 | 0.00 | 0.00 | 47 | 1012.3 |
| 20260502231615 | 12 | 339 | 17.7 | 30.6 | 0.00 | 0.00 | 0.00 | 46 | 1012.2 |
| 20260502231515 | 12 | 296 | 17.7 | 30.6 | 0.00 | 0.00 | 0.00 | 46 | 1012.3 |
| 20260502231414 | 12 | 313 | 19.3 | 30.6 | 0.00 | 0.00 | 0.00 | 46 | 1012.2 |
| 20260502231310 | 12 | 278 | 19.3 | 30.6 | 0.00 | 0.00 | 0.00 | 46 | 1012.3 |
| 20260502231209 | 12 | 325 | 19.3 | 30.6 | 0.00 | 0.00 | 0.00 | 46 | 1012.2 |
| 20260502231108 | 12 | 312 | 17.7 | 30.6 | 0.00 | 0.00 | 0.00 | 46 | 1012.3 |
| 20260502231009 | 12 | 295 | 17.7 | 30.6 | 0.00 | 0.00 | 0.00 | 46 | 1012.3 |
| 20260502230908 | 12 | 294 | 17.7 | 30.6 | 0.00 | 0.00 | 0.00 | 45 | 1012.3 |
| 20260502230808 | 12 | 307 | 17.7 | 30.6 | 0.00 | 0.00 | 0.00 | 45 | 1012.2 |
| 20260502230709 | 12 | 297 | 17.7 | 30.6 | 0.00 | 0.00 | 0.00 | 45 | 1012.3 |
| 20260502230609 | 12 | 297 | 16.1 | 30.6 | 0.00 | 0.00 | 0.00 | 46 | 1012.2 |
| 20260502230508 | 12 | 292 | 16.1 | 30.6 | 0.00 | 0.00 | 0.00 | 46 | 1012.2 |
| 20260502230408 | 12 | 323 | 16.1 | 30.6 | 0.00 | 0.00 | 0.00 | 46 | 1012.2 |
| 20260502230306 | 12 | 334 | 16.1 | 30.6 | 0.00 | 0.00 | 0.00 | 46 | 1012.3 |
| 20260502230206 | 12 | 283 | 16.1 | 30.6 | 0.00 | 0.00 | 0.00 | 47 | 1012.2 |
| 20260502230106 | 12 | 302 | 14.5 | 30.6 | 0.00 | 0.00 | 0.00 | 47 | 1012.2 |
| 20260502230006 | 12 | 267 | 14.5 | 30.6 | 0.00 | 0.00 | 0.00 | 47 | 1012.2 |
| 20260502225906 | 12 | 315 | 12.9 | 25.7 | 0.00 | 0.00 | 0.00 | 47 | 1012.3 |
| 20260502225807 | 12 | 331 | 14.5 | 25.7 | 0.00 | 0.00 | 0.00 | 47 | 1012.3 |
| 20260502225706 | 12 | 298 | 16.1 | 25.7 | 0.00 | 0.00 | 0.00 | 47 | 1012.2 |
| 20260502225602 | 12 | 307 | 16.1 | 30.6 | 0.00 | 0.00 | 0.00 | 47 | 1012.2 |
| 20260502225502 | 12 | 317 | 16.1 | 30.6 | 0.00 | 0.00 | 0.00 | 48 | 1012.1 |
| 20260502225403 | 12 | 309 | 17.7 | 30.6 | 0.00 | 0.00 | 0.00 | 47 | 1012.2 |
| 20260502225304 | 12 | 312 | 17.7 | 30.6 | 0.00 | 0.00 | 0.00 | 47 | 1012.2 |
| 20260502225202 | 12 | 304 | 17.7 | 30.6 | 0.00 | 0.00 | 0.00 | 47 | 1012.1 |
| 20260502225102 | 12 | 314 | 19.3 | 30.6 | 0.00 | 0.00 | 0.00 | 47 | 1012.2 |
| 20260502225004 | 12 | 333 | 19.3 | 30.6 | 0.00 | 0.00 | 0.00 | 46 | 1012.2 |
| 20260502224902 | 12 | 320 | 20.9 | 32.2 | 0.00 | 0.00 | 0.00 | 47 | 1012.2 |
| 20260502224802 | 12 | 302 | 19.3 | 32.2 | 0.00 | 0.00 | 0.00 | 46 | 1012.1 |
| 20260502224700 | 12 | 316 | 19.3 | 32.2 | 0.00 | 0.00 | 0.00 | 46 | 1012.2 |
| 20260502224600 | 12 | 292 | 19.3 | 32.2 | 0.00 | 0.00 | 0.00 | 46 | 1012.1 |
| 20260502224500 | 12 | 320 | 19.3 | 32.2 | 0.00 | 0.00 | 0.00 | 45 | 1012.1 |
| 20260502224400 | 12 | 313 | 19.3 | 32.2 | 0.00 | 0.00 | 0.00 | 46 | 1012.1 |
| 20260502224301 | 12 | 298 | 19.3 | 32.2 | 0.00 | 0.00 | 0.00 | 46 | 1012.1 |
| 20260502224201 | 12 | 327 | 19.3 | 32.2 | 0.00 | 0.00 | 0.00 | 45 | 1012.1 |
| 20260502224100 | 12 | 286 | 19.3 | 32.2 | 0.00 | 0.00 | 0.00 | 45 | 1012.1 |
| 20260502224001 | 13 | 317 | 19.3 | 32.2 | 0.00 | 0.00 | 0.00 | 45 | 1012.1 |
| 20260502223855 | 13 | 327 | 19.3 | 32.2 | 0.00 | 0.00 | 0.00 | 45 | 1012.0 |
| 20260502223755 | 13 | 333 | 19.3 | 32.2 | 0.00 | 0.00 | 0.00 | 45 | 1012.1 |
| 20260502223655 | 13 | 311 | 20.9 | 32.2 | 0.00 | 0.00 | 0.00 | 45 | 1012.0 |
| 20260502223555 | 13 | 306 | 19.3 | 35.4 | 0.00 | 0.00 | 0.00 | 45 | 1012.1 |
| 20260502223454 | 13 | 295 | 19.3 | 35.4 | 0.00 | 0.00 | 0.00 | 45 | 1012.0 |
| 20260502223350 | 13 | 325 | 19.3 | 35.4 | 0.00 | 0.00 | 0.00 | 45 | 1012.0 |
| 20260502223251 | 13 | 339 | 19.3 | 35.4 | 0.00 | 0.00 | 0.00 | 45 | 1012.0 |
| 20260502223150 | 13 | 296 | 17.7 | 35.4 | 0.00 | 0.00 | 0.00 | 46 | 1012.0 |
| 20260502223050 | 13 | 284 | 17.7 | 35.4 | 0.00 | 0.00 | 0.00 | 44 | 1012.0 |
| 20260502222949 | 13 | 338 | 17.7 | 35.4 | 0.00 | 0.00 | 0.00 | 44 | 1011.8 |
| 20260502222850 | 13 | 327 | 17.7 | 35.4 | 0.00 | 0.00 | 0.00 | 44 | 1012.0 |
| 20260502222750 | 13 | 330 | 17.7 | 35.4 | 0.00 | 0.00 | 0.00 | 44 | 1012.0 |
| 20260502222650 | 13 | 308 | 16.1 | 35.4 | 0.00 | 0.00 | 0.00 | 44 | 1012.0 |
| 20260502222549 | 13 | 312 | 16.1 | 24.1 | 0.00 | 0.00 | 0.00 | 45 | 1012.0 |
| 20260502222450 | 13 | 328 | 17.7 | 24.1 | 0.00 | 0.00 | 0.00 | 44 | 1012.0 |
| 20260502222348 | 13 | 322 | 17.7 | 24.1 | 0.00 | 0.00 | 0.00 | 45 | 1011.8 |
| 20260502222246 | 13 | 292 | 17.7 | 24.1 | 0.00 | 0.00 | 0.00 | 45 | 1012.1 |
| 20260502222146 | 13 | 311 | 17.7 | 24.1 | 0.00 | 0.00 | 0.00 | 45 | 1011.8 |
| 20260502222048 | 13 | 314 | 17.7 | 24.1 | 0.00 | 0.00 | 0.00 | 45 | 1011.8 |
| 20260502221948 | 13 | 327 | 17.7 | 30.6 | 0.00 | 0.00 | 0.00 | 45 | 1011.8 |
| 20260502221847 | 13 | 313 | 17.7 | 30.6 | 0.00 | 0.00 | 0.00 | 45 | 1011.8 |
| 20260502221747 | 13 | 336 | 17.7 | 30.6 | 0.00 | 0.00 | 0.00 | 45 | 1012.0 |
| 20260502221644 | 13 | 342 | 17.7 | 30.6 | 0.00 | 0.00 | 0.00 | 45 | 1011.7 |
| 20260502221542 | 13 | 330 | 19.3 | 30.6 | 0.00 | 0.00 | 0.00 | 44 | 1011.7 |
| 20260502221440 | 13 | 320 | 19.3 | 30.6 | 0.00 | 0.00 | 0.00 | 45 | 1011.8 |
| 20260502221340 | 13 | 273 | 19.3 | 30.6 | 0.00 | 0.00 | 0.00 | 44 | 1011.7 |
| 20260502221241 | 13 | 284 | 19.3 | 35.4 | 0.00 | 0.00 | 0.00 | 45 | 1011.7 |
| 20260502221131 | 13 | 323 | 20.9 | 37.0 | 0.00 | 0.00 | 0.00 | 44 | 1011.6 |
| 20260502221031 | 13 | 311 | 20.9 | 37.0 | 0.00 | 0.00 | 0.00 | 45 | 1011.6 |
| 20260502220931 | 13 | 313 | 20.9 | 37.0 | 0.00 | 0.00 | 0.00 | 45 | 1011.6 |
| 20260502220830 | 13 | 318 | 19.3 | 37.0 | 0.00 | 0.00 | 0.00 | 45 | 1011.6 |
| 20260502220731 | 13 | 313 | 19.3 | 37.0 | 0.00 | 0.00 | 0.00 | 44 | 1011.6 |
| 20260502220625 | 13 | 311 | 19.3 | 37.0 | 0.00 | 0.00 | 0.00 | 44 | 1011.5 |
| 20260502220525 | 13 | 340 | 17.7 | 37.0 | 0.00 | 0.00 | 0.00 | 44 | 1011.6 |
| 20260502220425 | 13 | 273 | 17.7 | 37.0 | 0.00 | 0.00 | 0.00 | 43 | 1011.5 |
| 20260502220325 | 13 | 327 | 17.7 | 37.0 | 0.00 | 0.00 | 0.00 | 44 | 1011.5 |
| 20260502220224 | 13 | 313 | 17.7 | 37.0 | 0.00 | 0.00 | 0.00 | 44 | 1011.4 |
| 20260502220119 | 13 | 333 | 16.1 | 37.0 | 0.00 | 0.00 | 0.00 | 43 | 1011.4 |
| 20260502220018 | 13 | 296 | 16.1 | 32.2 | 0.00 | 0.00 | 0.00 | 44 | 1011.4 |
| 20260502215919 | 13 | 327 | 14.5 | 30.6 | 0.00 | 0.00 | 0.00 | 44 | 1011.4 |
| 20260502215819 | 13 | 322 | 16.1 | 30.6 | 0.00 | 0.00 | 0.00 | 44 | 1011.4 |